     2              OBSERVATION DATA    GPS                 RINEX VERSION / TYPE
teqc 2000Feb29 Duncan Agnew 20000707 21:02:18UTC            PGM / RUN BY / DATE
                                                            COMMENT
L2: 1 -> 1; 5 -> 5; 60 -> 9                                 COMMENT
L2: 1 -> 1; 5 -> 5; 60 -> 9                                 COMMENT
L2: 1 -> 1; 5 -> 5; 60 -> 9                                 COMMENT
L2: 1 -> 1; 5 -> 5; 60 -> 9                                 COMMENT
L2: 1 -> 1; 5 -> 5; 60 -> 9                                 COMMENT
Original Marker Name: 3422                                  COMMENT
Campaign Name: USMC MCAGCC                                  COMMENT
4-Character Station Name: HEBR                              COMMENT
6-Character Antenna Code: TRMSST                            COMMENT
Vertical Measurement Point: BGP                             COMMENT
Vertical Offset to Rinex Ref. Point: 0.0597                 COMMENT
Radial Measurement Point: NGP                               COMMENT
Radial Offset to Rinex Ref. Point: 0.2334                   COMMENT
Antenna Height from Field Measurement: 1.3890 m             COMMENT
Additional Antenna Identification Info.:                    COMMENT
Model 14532.00                                              COMMENT
Original XYZ: -2331207.5629 -4724513.2486 3584716.9611      COMMENT
New XYZ position is based on association with SCEC monument COMMENT
E1F2H6U3+0011. Position of that monument is believed to be  COMMENT
valid to within 1 m horizontally; vertical accuracy         COMMENT
should be no worse than 3-times this value.                 COMMENT
                                                            COMMENT
Revised Rinex header created by UCSD GPS archive for        COMMENT
GSAC on 10-Aug-2000 (2000:223) 22:22:04 GMT                 COMMENT
For assistance contact dagnew@ucsd.edu                      COMMENT
or anderson@python.ucsd.edu                                 COMMENT
                                                            COMMENT
HEBER                                                       MARKER NAME
____0001                                                    MARKER NUMBER
-Unknown- 11TH ARTILLERY US MARINE CORPS                    OBSERVER / AGENCY
23422 TRIMBLE MSGR NP 7.57; SP 3.53                         REC # / TYPE / VERS
S/N UNKNOWN TR 4000SST L1/L2 GEO                            ANT # / TYPE
 -2331205.6185 -4724509.9293  3584713.7179                  APPROX POSITION XYZ
        1.3095        0.0000        0.0000                  ANTENNA: DELTA H/E/N
     1     1     0                                          WAVELENGTH FACT L1/2
     6    L1    L2    P1    P2    S1    S2                  # / TYPES OF OBSERV
     0                                                      INTERVAL
  1999     3     9     1     4   30.000000                  TIME OF FIRST OBS
  1999     3     9     2     1    0.000000                  TIME OF LAST OBS
                                                            END OF HEADER
 99  3  9  1  4 30.0000000  0  6G 5G 6G10G17G24G30
    640715.65216    486232.52216  21617279.625    21617287.422          18.250
        20.000
   -380088.47216   -296172.99416  21599718.664    21599725.848          18.500
        20.500
    239802.10516    186858.99216  21188959.398    21188966.852          18.750
        22.000
   -516365.40115   -402360.82715  23768177.766    23768188.516           7.750
         9.000
    566710.79316    441593.08416  22427522.445    22427530.984          14.500
        15.750
    134321.46616    102757.39516  20642985.195    20642991.547          19.000
        22.750
 99  3  9  1  4 45.0000000  4  1
1.390                                                       COMMENT
 99  3  9  1  4 45.0000000  0  6G 5G 6G10G17G24G30
    685645.889 6    521243.065 6  21625829.508    21625837.223          18.250
        19.750
   -404237.129 6   -314990.100 6  21595123.141    21595130.430          18.500
        20.250
    257915.753 6    200973.542 6  21192406.359    21192413.813          19.000
        22.000
   -550353.545 5   -428844.987 5  23761711.102    23761722.352           8.250
         9.500
    607036.170 6    473015.447 6  22435196.672    22435205.352          14.500
        15.750
    144614.023 6    110777.581 6  20644943.844    20644950.105          19.000
        22.500
 99  3  9  1  5  0.0000000  0  6G 5G 6G10G17G24G30
    730727.274 6    556371.399 6  21634408.320    21634415.941          18.250
        19.500
   -428303.511 6   -333743.096 6  21590543.539    21590550.691          18.500
        20.500
    276226.167 6    215241.405 6  21195890.656    21195898.168          18.500
        22.000
   -584250.418 5   -455258.023 5  23755259.188    23755270.563           7.500
         9.250
    647424.991 6    504487.245 6  22442881.766    22442890.598          14.250
        15.250
    155106.911 6    118953.870 6  20646940.406    20646946.770          18.750
        22.750
 99  3  9  1  5 15.0000000  0  6G 5G 6G10G17G24G30
    775952.862 6    591612.092 6  21643014.594    21643022.137          18.500
        19.500
   -452292.536 6   -352435.817 6  21585978.500    21585985.711          19.000
        20.750
    294729.587 6    229659.657 6  21199411.742    21199419.223          18.750
        22.000
   -618062.172 5   -481604.727 5  23748825.781    23748837.480           8.000
         9.750
    687877.225 6    536008.450 6  22450580.000    22450588.539          14.500
        15.250
    165795.239 6    127282.444 6  20648974.516    20648980.813          19.000
        23.000
 99  3  9  1  5 30.0000000  0  6G 5G 6G10G17G24G30
    821312.453 6    626957.204 6  21651646.070    21651653.871          18.250
        19.750
   -476214.514 6   -371076.277 6  21581426.305    21581433.473          19.250
        20.750
    313416.116 6    244220.604 6  21202967.594    21202975.070          18.750
        22.000
   -651796.409 5   -507891.015 5  23742405.852    23742416.848           7.500
         9.500
    728384.836 6    567572.823 6  22458288.227    22458296.996          14.500
        15.250
    176674.077 6    135759.477 6  20651044.773    20651051.195          19.250
        23.000
 99  3  9  1  5 45.0000000  0  6G 5G 6G10G17G24G30
    866801.575 6    662403.255 6  21660302.438    21660310.230          18.250
        19.750
   -500072.820 6   -389667.132 6  21576886.117    21576893.391          19.250
        20.750
    332282.839 6    258921.959 6  21206557.773    21206565.352          18.750
        22.000
   -685454.832 5   -534118.263 5  23736001.391    23736012.488           7.750
         9.750
    768947.730 6    599180.258 6  22466006.945    22466015.906          14.250
        15.250
    187741.823 6    144383.708 6  20653150.820    20653157.152          19.250
        23.000
 99  3  9  1  6  0.0000000  0  6G 5G 6G10G17G24G30
    912416.991 6    697947.713 6  21668982.695    21668990.473          18.250
        20.000
   -523867.320 6   -408208.267 6  21572358.234    21572365.504          19.500
        20.750
    351328.201 6    273762.508 6  21210181.961    21210189.570          18.750
        22.000
   -719034.667 5   -560284.234 5  23729611.102    23729622.734           7.750
        10.250
    809566.428 6    630831.193 6  22473736.578    22473745.000          14.250
        15.000
    198995.843 6    153153.085 6  20655292.391    20655298.695          19.500
        22.750
 99  3  9  1  6 15.0000000  0  6G 5G 6G10G17G24G30
    958151.301 6    733584.816 6  21677685.680    21677693.500          17.750
        20.000
   -547599.423 6   -426700.780 6  21567842.203    21567849.293          19.250
        20.750
    370550.507 6    288740.934 6  21213839.891    21213847.527          18.500
        22.000
   -752539.702 5   -586391.939 5  23723234.547    23723245.430           7.500
         9.500
    850235.756 6    662521.564 6  22481475.359    22481484.523          14.000
        15.000
    210430.704 6    162063.377 6  20657468.383    20657474.684          19.250
        23.000
 99  3  9  1  6 30.0000000  0  6G 5G 6G10G17G24G30
   1003995.776 6    769307.763 6  21686409.555    21686417.480          17.500
        20.000
   -571273.915 6   -445148.404 6  21563336.969    21563344.152          19.250
        20.750
    389945.156 6    303853.659 6  21217530.492    21217538.191          18.500
        22.000
   -785976.346 5   -612446.355 5  23716872.727    23716883.676           8.000
        10.250
    890947.898 6    694245.302 6  22489223.219    22489231.902          14.000
        15.250
    222040.342 6    171109.860 6  20659677.672    20659683.977          19.500
        23.000
 99  3  9  1  6 45.0000000  0  6G 5G 6G10G17G24G30
   1049953.201 6    805118.718 6  21695154.969    21695162.875          17.500
        20.000
   -594887.549 6   -463548.609 6  21558843.273    21558850.418          19.250
        21.000
    409515.681 6    319103.423 6  21221254.734    21221262.270          18.750
        22.000
   -819336.335 5   -638441.036 5  23710522.852    23710534.875           7.500
        10.000
    931707.158 6    726005.757 6  22496979.000    22496987.813          13.750
        15.000
    233826.577 6    180293.944 6  20661920.461    20661926.781          19.500
        23.250
 99  3  9  1  7  0.0000000  0  6G 5G 6G10G17G24G30
   1096013.165 6    841009.578 6  21703919.859    21703928.020          17.000
        20.250
   -618446.072 6   -481905.862 6  21554360.336    21554367.441          19.500
        20.750
    429254.986 6    334484.711 6  21225010.961    21225018.402          18.750
        22.000
   -852622.619 5   -664378.298 5  23704190.539    23704200.352           8.000
        10.000
    972509.013 6    757799.393 6  22504743.383    22504752.586          13.750
        15.000
    245782.877 6    189610.553 6  20664195.617    20664201.980          19.500
        23.250
 99  3  9  1  7 15.0000000  0  6G 5G 6G10G17G24G30
   1142178.887 6    876982.853 6  21712704.875    21712712.922          17.250
        20.250
   -641941.359 6   -500213.843 6  21549889.180    21549896.395          19.500
        21.000
    449165.502 6    349999.407 6  21228799.867    21228807.367          19.250
        22.000
   -885829.382 5   -690253.568 5  23697869.492    23697882.723           7.500
        10.750
   1013356.157 6    789628.333 6  22512516.586    22512525.445          14.000
        15.000
    257915.170 6    199064.295 6  20666504.367    20666510.684          19.750
        23.250
 99  3  9  1  7 30.0000000  0  6G 5G 6G10G17G24G30
   1188447.822 6    913036.543 6  21721509.508    21721517.727          17.000
        20.250
   -665377.947 6   -518476.089 6  21545429.602    21545436.715          19.500
        21.000
    469244.122 6    365645.091 6  21232620.773    21232628.188          19.250
        22.000
   -918957.451 5   -716067.540 5  23691567.031    23691576.250           8.000
         9.750
   1054241.298 6    821486.880 6  22520296.453    22520305.563          14.000
        14.750
    270220.980 6    208653.246 6  20668846.078    20668852.484          19.750
        23.250
 99  3  9  1  7 45.0000000  0  6G 5G 6G10G17G24G30
   1234819.614 6    949170.386 6  21730333.875    21730342.098          16.750
        20.500
   -688754.979 6   -536691.922 6  21540980.891    21540988.117          19.500
        21.000
    489489.616 6    381420.815 6  21236473.195    21236480.668          19.000
        22.000
   -952008.221 5   -741821.280 5  23685276.336    23685288.543           7.500
        10.750
   1095161.085 6    853372.421 6  22528083.531    22528092.000          14.000
        14.750
    282699.019 6    218376.400 6  20671220.594    20671226.930          19.750
        23.250
 99  3  9  1  8  0.0000000  0  6G 5G 6G10G17G24G30
   1281299.385 6    985388.369 6  21739178.555    21739186.797          16.500
        20.500
   -712065.258 6   -554855.746 6  21536545.000    21536552.141          19.500
        21.000
    509905.501 6    397329.314 6  21240358.211    21240365.656          19.000
        22.000
   -984980.071 5   -767513.523 5  23679002.867    23679013.395           7.750
        10.500
   1136118.243 6    885287.076 6  22535877.398    22535886.512          14.000
        14.750
    295347.364 6    228232.264 6  20673627.406    20673633.746          19.500
        23.500
 99  3  9  1  8 15.0000000  0  6G 5G 6G10G17G24G30
   1327885.092 6   1021688.896 6  21748043.516    21748051.875          16.500
        20.500
   -735310.680 6   -572969.031 6  21532121.570    21532128.676          19.750
        21.000
    530489.828 6    413369.059 6  21244275.266    21244282.773          19.250
        22.250
  -1017875.215 5   -793145.992 5  23672742.352    23672753.316           7.500
        10.250
   1177108.819 6    917227.779 6  22543677.391    22543686.441          13.500
        14.750
    308162.794 6    238218.321 6  20676066.023    20676072.449          19.500
        23.250
 99  3  9  1  8 30.0000000  0  6G 5G 6G10G17G24G30
   1374576.692 6   1058071.945 6  21756928.664    21756936.988          16.250
        20.500
   -758493.234 6   -591033.321 6  21527710.195    21527717.234          19.750
        21.250
    551241.566 6    429539.252 6  21248224.242    21248231.840          19.250
        22.000
  -1050695.240 5   -818719.923 5  23666496.961    23666508.512           7.500
        11.000
   1218130.499 6    949192.722 6  22551484.016    22551492.875          13.500
        14.750
    321147.964 6    248336.648 6  20678537.047    20678543.430          19.750
        23.500
 99  3  9  1  8 45.0000000  0  6G 5G 6G10G17G24G30
   1421380.199 6   1094542.189 6  21765835.063    21765843.395          16.250
        20.750
   -781610.510 6   -609046.756 6  21523310.961    21523318.102          19.500
        21.000
    572162.455 6    445841.261 6  21252205.234    21252212.738          19.000
        22.000
  -1083437.963 5   -844233.631 5  23660266.313    23660276.543           7.500
        10.500
   1259186.022 6    981184.035 6  22559296.633    22559305.055          13.500
        14.500
    334305.231 6    258589.068 6  20681040.664    20681047.133          19.500
        23.500
 99  3  9  1  9  0.0000000  0  6G 5G 6G10G17G24G30
   1468298.108 6   1131101.583 6  21774763.406    21774771.664          16.000
        20.750
   -804662.766 6   -627009.520 6  21518924.211    21518931.234          19.500
        21.250
    593254.754 6    462276.832 6  21256218.969    21256226.449          18.750
        22.000
  -1116104.133 5   -869687.680 5  23654050.055    23654061.254           7.500
        11.000
   1300275.894 6   1013202.119 6  22567115.398    22567124.441          13.250
        14.500
    347636.079 6    268976.747 6  20683577.336    20683583.859          19.500
        23.250
 99  3  9  1  9 15.0000000  0  6G 5G 6G10G17G24G30
   1515320.602 6   1167742.467 6  21783711.359    21783719.809          16.000
        20.750
   -827658.889 6   -644928.550 6  21514548.141    21514555.422          19.500
        21.250
    614507.986 6    478837.800 6  21260263.344    21260270.988          18.750
        22.000
  -1148705.804 5   -895091.486 5  23647846.250    23647857.020           7.500
        11.000
   1341388.637 6   1045238.011 6  22574938.578    22574947.910          13.250
        14.250
    361132.364 6    279493.344 6  20686145.742    20686152.285          19.500
        23.500
 99  3  9  1  9 30.0000000  0  6G 5G 6G10G17G24G30
   1562453.054 6   1204469.028 6  21792680.320    21792688.809          16.000
        20.750
   -850596.080 6   -662801.648 6  21510183.438    21510190.598          19.500
        21.250
    635926.892 6    495527.870 6  21264339.203    21264346.809          18.750
        22.000
  -1181239.484 5   -920442.316 5  23641655.336    23641665.660           7.500
        10.750
   1382528.248 6   1077294.855 6  22582768.273    22582776.520          13.500
        14.250
    374799.355 6    290142.955 6  20688746.375    20688752.973          19.250
        23.250
 99  3  9  1  9 45.0000000  0  6G 5G 6G10G17G24G30
   1609693.276 6   1241279.570 6  21801669.750    21801678.121          15.750
        20.500
   -873475.417 6   -680629.675 6  21505829.469    21505836.648          19.250
        21.250
    657510.202 6    512346.054 6  21268446.359    21268453.941          18.750
        21.750
  -1213706.909 4   -945741.493 5  23635476.031    23635488.152           7.250
        11.500
   1423696.783 6   1109374.228 6  22590601.383    22590610.684          13.250
        14.500
    388637.134 6    300925.646 6  20691379.672    20691386.094          18.750
        23.500
 99  3  9  1 10  0.0000000  0  6G 5G 6G10G17G24G30
   1657038.504 6   1278171.940 6  21810679.477    21810687.848          15.750
        20.750
   -896298.794 6   -698414.084 6  21501486.250    21501493.406          19.250
        21.250
    679252.861 6    529288.402 6  21272583.758    21272591.355          18.750
        21.750
  -1246111.660 5   -970991.851 5  23629310.406    23629320.414           7.500
        11.000
   1464893.155 6   1141475.296 6  22598441.039    22598449.906          13.250
        14.250
    402641.113 6    311837.845 6  20694044.469    20694050.973          18.750
        23.250
 99  3  9  1 10 15.0000000  0  6G 5G 6G10G17G24G30
   1704490.647 6   1315147.616 6  21819709.344    21819717.770          16.000
        20.750
   -919066.933 6   -716155.454 6  21497153.711    21497160.875          19.250
        21.250
    701159.548 6    546358.555 6  21276752.469    21276759.945          18.750
        21.750
  -1278450.217 5   -996190.632 5  23623156.172    23623167.645           7.500
        11.250
   1506120.758 6   1173600.703 6  22606286.906    22606295.301          13.250
        14.250
    416816.345 6    322883.486 6  20696741.789    20696748.293          18.750
        23.250
 99  3  9  1 10 30.0000000  0  6G 5G 6G10G17G24G30
   1752047.946 6   1352205.234 6  21828759.289    21828767.660          16.000
        20.750
   -941781.643 6   -733855.195 6  21492831.219    21492838.453          19.250
        21.250
    723230.368 6    563556.614 6  21280952.344    21280959.816          18.750
        21.750
  -1310723.333 5  -1021338.419 5  23617014.891    23617025.320           7.500
        11.250
   1547379.039 6   1205750.010 6  22614137.422    22614146.453          13.000
        14.000
    431167.542 6    334066.243 6  20699473.000    20699479.473          18.750
        23.000
 99  3  9  1 10 45.0000000  0  6G 5G 6G10G17G24G30
   1799715.009 6   1389348.380 6  21837830.008    21837838.379          16.000
        20.500
   -964436.133 6   -751508.006 6  21488520.141    21488527.363          19.000
        21.250
    745466.954 6    580883.840 6  21285183.852    21285191.469          18.750
        21.750
  -1342930.079 4  -1046434.495 5  23610886.109    23610897.027           7.250
        11.500
   1588672.954 6   1237927.086 6  22621995.727    22622004.273          13.000
        14.000
    445695.302 6    345386.579 6  20702237.531    20702243.906          18.750
        23.000
 99  3  9  1 11  0.0000000  0  6G 5G 6G10G17G24G30
   1847479.758 6   1426567.649 6  21846919.391    21846927.789          16.000
        20.500
   -987043.264 6   -769123.916 6  21484218.273    21484225.332          19.250
        21.250
    767857.050 6    598330.681 6  21289444.602    21289452.125          18.750
        21.500
  -1375084.687 5  -1071489.942 5  23604766.648    23604777.926           7.500
        11.500
   1629993.675 6   1270125.051 6  22629858.734    22629867.910          13.000
        14.250
    460384.740 6    356832.897 6  20705032.820    20705039.160          18.750
        22.750
 99  3  9  1 11 15.0000000  0  6G 5G 6G10G17G24G30
   1895346.349 6   1463866.272 6  21856028.141    21856036.520          16.250
        20.500
  -1009597.219 6   -786698.392 6  21479926.297    21479933.340          19.250
        21.250
    790404.962 6    615900.497 6  21293735.258    21293742.816          18.750
        21.500
  -1407179.572 5  -1096498.839 5  23598660.016    23598669.953           7.500
        11.250
   1671348.846 6   1302349.857 6  22637728.266    22637736.914          13.250
        13.750
    475238.950 6    368407.610 6  20707859.352    20707865.738          18.750
        22.750
 99  3  9  1 11 30.0000000  0  6G 5G 6G10G17G24G30
   1943316.290 6   1501245.428 6  21865156.617    21865164.891          16.250
        20.250
  -1032092.771 6   -804227.356 6  21475645.422    21475652.527          19.000
        21.250
    813112.997 6    633595.088 6  21298056.430    21298063.914          18.500
        21.500
  -1439212.731 4  -1121459.658 5  23592563.492    23592574.758           7.250
        11.750
   1712742.644 6   1334604.768 6  22645605.508    22645614.367          13.250
        13.750
    490259.415 6    380111.874 6  20710717.695    20710724.012          18.750
        22.250
 99  3  9  1 11 45.0000000  0  6G 5G 6G10G17G24G30
   1991390.505 6   1538705.834 6  21874304.844    21874313.160          16.250
        20.500
  -1054532.198 6   -821712.592 6  21471375.250    21471382.367          19.000
        21.250
    835980.869 6    651414.223 6  21302408.031    21302415.551          18.500
        21.250
  -1471186.751 5  -1146374.387 5  23586479.500    23586489.691           7.500
        11.500
   1754175.921 6   1366890.435 6  22653489.648    22653498.344          13.000
        13.500
    505442.062 6    391942.517 6  20713606.844    20713613.078          18.750
        22.250
 99  3  9  1 12  0.0000000  0  6G 5G 6G10G17G24G30
   2039566.510 6   1576245.564 6  21883472.563    21883480.855          16.500
        20.250
  -1076920.410 6   -839157.912 6  21467115.016    21467122.113          19.000
        21.250
    859003.031 6    669353.581 6  21306788.984    21306796.473          18.500
        21.250
  -1503105.808 4  -1171246.295 5  23580404.836    23580416.145           7.250
        11.750
   1795642.241 6   1399201.858 6  22661380.961    22661389.949          13.000
        13.750
    520779.739 6    403893.957 6  20716525.672    20716531.984          18.500
        22.250
 99  3  9  1 12 15.0000000  0  6G 5G 6G10G17G24G30
   2087844.118 6   1613864.458 6  21892659.516    21892667.727          16.500
        20.250
  -1099262.189 6   -856567.056 6  21462863.438    21462870.629          19.000
        21.250
    882178.741 6    687412.584 6  21311199.219    21311206.773          18.500
        21.250
  -1534969.729 5  -1196075.233 5  23574341.609    23574352.113           7.500
        11.750
   1837138.196 6   1431536.369 6  22669276.813    22669285.770          13.000
        13.500
    536269.886 6    415964.207 6  20719473.180    20719479.488          18.500
        22.000
 99  3  9  1 12 30.0000000  0  6G 5G 6G10G17G24G30
   2136229.783 6   1651567.555 6  21901867.070    21901875.219          16.750
        20.000
  -1121547.868 6   -873932.489 6  21458622.563    21458629.684          18.750
        21.250
    905516.926 6    705598.198 6  21315640.234    21315647.816          18.500
        21.000
  -1566768.182 5  -1220853.167 6  23568290.742    23568301.582           7.500
        12.250
   1878670.904 6   1463899.518 6  22677180.820    22677189.055          13.000
        13.250
    551922.841 6    428161.319 6  20722451.875    20722458.125          18.500
        22.000
 99  3  9  1 12 45.0000000  0  6G 5G 6G10G17G24G30
   2184722.599 6   1689354.150 6  21911095.031    21911103.063          16.750
        20.000
  -1143777.416 6   -891254.182 6  21454392.367    21454399.410          19.000
        21.250
    929013.144 6    723906.952 6  21320111.422    21320118.930          18.500
        21.000
  -1598501.994 5  -1245580.721 6  23562251.375    23562262.578           7.500
        12.250
   1920236.363 6   1496288.182 6  22685089.938    22685099.207          12.750
        13.500
    567732.915 6    440480.862 6  20725460.508    20725466.637          18.750
        22.000
 99  3  9  1 13  0.0000000  0  6G 5G 6G10G17G24G30
   2233317.922 6   1727220.609 6  21920342.484    21920350.570          17.000
        19.750
  -1165955.055 6   -908535.426 6  21450172.008    21450179.148          19.000
        21.000
    952665.678 6    742337.514 6  21324612.359    21324619.836          18.750
        21.000
  -1630171.888 5  -1270258.481 6  23556224.789    23556235.945           7.500
        12.250
   1961829.177 6   1528698.162 6  22693004.844    22693013.746          12.750
        13.000
    583695.647 6    452919.358 6  20728497.984    20728504.211          18.750
        22.000
 99  3  9  1 13 15.0000000  0  6G 5G 6G10G17G24G30
   2282012.347 6   1765164.298 6  21929608.727    21929616.816          17.000
        19.500
  -1188084.435 6   -925779.066 6  21445960.797    21445967.898          18.750
        21.000
    976473.469 6    760889.052 6  21329142.820    21329150.277          18.750
        21.000
  -1661774.987 5  -1294884.178 6  23550211.070    23550221.742           7.500
        12.250
   2003444.732 6   1561125.880 6  22700924.000    22700932.875          12.500
        13.000
    599813.692 6    465478.877 6  20731565.305    20731571.539          18.500
        22.000
 99  3  9  1 13 30.0000000  0  6G 5G 6G10G17G24G30
   2330800.170 6   1803180.766 6  21938892.742    21938900.879          16.750
        19.500
  -1210167.904 6   -942986.933 6  21441758.469    21441765.578          18.750
        21.000
   1000432.599 6    779558.517 6  21333702.102    21333709.613          18.500
        20.500
  -1693313.894 5  -1319459.875 6  23544209.258    23544220.211           7.500
        12.500
   2045075.612 6   1593565.516 6  22708846.195    22708854.746          12.500
        13.000
    616085.788 6    478158.435 6  20734661.555    20734667.855          18.500
        22.000
 99  3  9  1 13 45.0000000  0  6G 5G 6G10G17G24G30
   2379682.373 6   1841270.777 6  21948194.727    21948202.699          17.000
        19.250
  -1232205.081 6   -960158.725 6  21437564.945    21437572.023          18.750
        21.000
   1024543.936 6    798346.586 6  21338290.383    21338297.781          18.750
        20.500
  -1724788.043 5  -1343985.095 6  23538219.852    23538230.684           7.500
        12.500
   2086721.631 6   1626016.969 6  22716771.188    22716780.441          12.500
        13.250
    632515.829 6    490961.070 6  20737788.250    20737794.441          18.500
        22.000
 99  3  9  1 14  0.0000000  0  6G 5G 6G10G17G24G30
   2428654.452 6   1879430.815 6  21957513.742    21957521.867          16.750
        19.000
  -1254198.050 6   -977296.071 6  21433379.859    21433386.918          18.750
        21.000
   1048805.789 6    817251.940 6  21342907.117    21342914.438          18.750
        20.500
  -1756194.801 5  -1368457.812 6  23532243.258    23532253.984           7.500
        12.500
   2128378.792 6   1658477.088 6  22724698.109    22724706.824          12.250
        13.000
    649102.920 6    503886.077 6  20740944.586    20740950.848          18.500
        22.250
 99  3  9  1 14 15.0000000  0  6G 5G 6G10G17G24G30
   2477711.622 6   1917657.170 6  21966849.031    21966857.137          16.750
        18.750
  -1276142.759 6   -994395.809 6  21429203.945    21429210.930          18.500
        21.000
   1073218.698 6    836274.997 6  21347552.742    21347560.137          18.750
        20.500
  -1787532.434 5  -1392876.669 6  23526279.672    23526290.625           7.500
        12.500
   2170048.548 6   1690947.033 6  22732627.773    22732636.836          12.500
        13.000
    665850.310 6    516936.001 6  20744131.492    20744137.813          18.250
        22.250
 99  3  9  1 14 30.0000000  0  6G 5G 6G10G17G24G30
   2526853.606 6   1955949.605 6  21976200.328    21976208.375          16.500
        18.500
  -1298033.666 6  -1011453.628 6  21425038.188    21425045.184          18.750
        21.000
   1097784.560 6    855417.246 6  21352227.672    21352234.938          18.750
        20.500
  -1818801.728 5  -1417242.273 6  23520329.891    23520340.551           7.750
        12.750
   2211734.538 6   1723429.626 6  22740560.367    22740568.895          12.500
        12.750
    682762.547 6    530114.366 6  20747349.859    20747356.094          18.500
        22.500
 99  3  9  1 14 45.0000000  0  6G 5G 6G10G17G24G30
   2576079.740 6   1994307.614 6  21985567.805    21985575.984          16.500
        18.250
  -1319866.967 6  -1028466.554 6  21420883.391    21420890.488          18.750
        21.000
   1122502.988 6    874678.371 6  21356931.398    21356938.625          18.750
        20.250
  -1850004.866 5  -1441556.317 6  23514390.969    23514401.980           7.500
        12.500
   2253437.155 6   1755925.174 6  22748496.063    22748505.352          12.250
        13.000
    699838.869 6    543420.604 6  20750599.328    20750605.719          18.500
        22.500
 99  3  9  1 15  0.0000000  0  6G 5G 6G10G17G24G30
   2625386.521 6   2032728.458 6  21994950.484    21994958.629          16.500
        18.250
  -1341646.109 6  -1045437.287 6  21416738.969    21416745.824          18.750
        21.000
   1147368.404 6    894054.035 6  21361663.016    21361670.301          18.750
        20.250
  -1881148.775 5  -1465824.217 6  23508465.164    23508476.219           7.750
        12.750
   2295153.047 6   1788431.062 6  22756434.352    22756442.859          12.250
        12.750
    717075.612 6    556851.836 6  20753879.445    20753885.750          18.500
        22.750
 99  3  9  1 15 15.0000000  0  6G 5G 6G10G17G24G30
   2674781.754 6   2071218.236 6  22004350.313    22004358.410          16.500
        18.250
  -1363364.572 6  -1062360.733 6  21412605.977    21412612.918          18.750
        21.000
   1172386.104 6    913548.367 6  21366423.805    21366431.051          18.750
        20.250
  -1912225.868 5  -1490040.044 6  23502550.617    23502561.988           7.750
        12.750
   2336893.546 6   1820956.135 6  22764377.289    22764385.879          12.250
        12.500
    734483.574 6    570416.488 6  20757192.031    20757198.418          18.750
        23.000
 99  3  9  1 15 30.0000000  0  6G 5G 6G10G17G24G30
   2724253.194 6   2109767.389 6  22013764.227    22013772.293          16.500
        18.000
  -1385034.366 6  -1079246.252 6  21408482.461    21408489.418          19.000
        21.000
   1197541.488 6    933149.981 6  21371210.750    21371217.855          18.750
        20.000
  -1943252.310 5  -1514216.410 6  23496647.383    23496658.047           8.000
        13.000
   2378647.242 6   1853491.479 6  22772322.516    22772331.840          12.250
        13.000
    752046.537 6    584101.923 6  20760534.227    20760540.508          18.750
        23.000
 99  3  9  1 15 45.0000000  0  6G 5G 6G10G17G24G30
   2773810.221 6   2148383.234 6  22023194.742    22023202.738          16.250
        18.000
  -1406644.238 6  -1096085.079 6  21404370.281    21404377.227          18.750
        21.000
   1222843.180 6    952865.606 6  21376025.430    21376032.695          18.750
        20.000
  -1974221.346 5  -1538348.036 6  23490753.602    23490764.605           8.000
        12.750
   2420424.622 6   1886045.287 6  22780272.750    22780281.258          12.250
        12.750
    769771.290 6    597913.418 6  20763907.180    20763913.500          18.750
        23.250
 99  3  9  1 16  0.0000000  0  6G 5G 6G10G17G24G30
   2823456.494 6   2187068.624 6  22032642.102    22032650.145          16.000
        17.750
  -1428192.884 6  -1112876.203 6  21400269.641    21400276.586          19.000
        21.000
   1248293.587 6    972697.103 6  21380868.539    21380875.660          18.750
        20.000
  -2005130.568 5  -1562433.061 6  23484872.172    23484882.480           8.250
        12.750
   2462228.969 6   1918620.108 6  22788227.992    22788236.613          12.250
        12.500
    787657.298 6    611850.582 6  20767310.789    20767317.008          19.000
        23.250
 99  3  9  1 16 15.0000000  0  6G 5G 6G10G17G24G30
   2873191.178 6   2225822.901 6  22042106.258    22042114.359          16.250
        17.750
  -1449682.387 6  -1129621.239 6  21396180.234    21396187.121          19.000
        21.250
   1273891.835 6    992643.806 6  21385739.789    21385746.816          18.750
        20.000
  -2035983.992 5  -1586474.613 6  23479000.586    23479011.551           8.500
        12.750
   2504058.797 6   1951214.779 6  22796187.320    22796196.336          12.000
        12.500
    805703.749 6    625912.753 6  20770744.820    20770751.164          19.250
        23.500
 99  3  9  1 16 30.0000000  0  6G 5G 6G10G17G24G30
   2923018.311 6   2264649.219 6  22051587.938    22051596.012          16.250
        17.500
  -1471118.445 6  -1146324.631 6  21392101.156    21392108.008          19.250
        21.000
   1299634.072 6   1012702.712 6  21390638.305    21390645.445          18.750
        20.000
  -2066786.352 5  -1610476.360 6  23473139.234    23473149.090           8.500
        12.500
   2545911.524 6   1983827.291 6  22804152.398    22804161.016          12.250
        12.750
    823908.491 6    640098.270 6  20774208.977    20774215.285          19.250
        23.500
 99  3  9  1 16 45.0000000  0  6G 5G 6G10G17G24G30
   2972943.431 6   2303551.895 6  22061088.484    22061096.512          16.000
        17.500
  -1492503.392 6  -1162988.188 6  21388031.773    21388038.629          19.250
        21.000
   1325522.264 6   1032875.342 6  21395564.539    21395571.727          18.750
        20.000
  -2097531.173 5  -1634433.282 6  23467288.125    23467299.164           8.500
        13.000
   2587786.592 6   2016457.220 6  22812120.664    22812129.324          12.250
        12.750
    842270.883 6    654406.638 6  20777703.406    20777709.652          19.250
        23.750
 99  3  9  1 17  0.0000000  0  6G 5G 6G10G17G24G30
   3022967.130 6   2342531.376 6  22070607.695    22070615.770          15.750
        17.250
  -1513840.290 6  -1179614.311 6  21383971.406    21383978.332          19.250
        21.250
   1351558.377 6   1053163.234 6  21400519.156    21400526.281          18.750
        19.750
  -2128214.335 5  -1658342.148 6  23461449.586    23461460.117           8.750
        12.750
   2629684.139 6   2049104.662 6  22820093.172    22820102.230          12.000
        12.750
    860789.395 6    668836.651 6  20781227.313    20781233.637          19.250
        23.750
 99  3  9  1 17 15.0000000  0  6G 5G 6G10G17G24G30
   3073089.198 6   2381587.516 6  22080145.602    22080153.457          15.500
        17.000
  -1535133.058 6  -1196206.044 6  21379919.578    21379926.375          19.250
        21.250
   1377740.471 6   1073564.893 6  21405501.453    21405508.551          18.500
        19.750
  -2158833.457 5  -1682201.118 6  23455623.555    23455633.113           9.000
        12.750
   2671604.473 6   2081769.875 6  22828071.148    22828079.023          12.250
        12.500
    879464.372 6    683388.592 6  20784781.055    20784787.387          19.500
        23.750
 99  3  9  1 17 30.0000000  0  6G 5G 6G10G17G24G30
   3123304.852 6   2420716.582 6  22089701.273    22089709.328          15.500
        17.000
  -1556381.945 6  -1212763.581 6  21375876.039    21375882.867          19.250
        21.250
   1404070.228 6   1094081.600 6  21410511.633    21410518.918          18.500
        20.000
  -2189389.171 5  -1706010.671 6  23449807.578    23449819.145           8.750
        13.000
   2713545.266 6   2114451.014 6  22836051.211    22836060.906          12.000
        13.000
    898290.861 6    698058.584 6  20788363.672    20788369.934          19.250
        23.750
 99  3  9  1 17 45.0000000  0  6G 5G 6G10G17G24G30
   3173611.748 6   2459916.740 6  22099274.461    22099282.531          15.250
        17.000
  -1577587.014 6  -1229286.976 6  21371840.758    21371847.633          19.250
        21.250
   1430549.319 6   1114714.663 6  21415550.625    21415557.828          18.500
        20.000
  -2219884.310 5  -1729773.033 6  23444006.188    23444015.516           9.250
        12.750
   2755502.945 6   2147145.312 6  22844036.297    22844044.715          12.250
        12.750
    917265.793 6    712844.258 6  20791974.359    20791980.703          19.500
        23.750
 99  3  9  1 18  0.0000000  0  6G 5G 6G10G17G24G30
   3224006.213 6   2499185.136 6  22108864.172    22108872.172          15.250
        17.000
  -1598753.055 6  -1245779.951 6  21367812.930    21367819.922          19.250
        21.250
   1457174.372 6   1135461.481 6  21420617.063    21420624.293          18.500
        20.000
  -2250319.153 5  -1753488.405 6  23438213.422    23438224.219           9.000
        12.750
   2797474.788 6   2179850.658 6  22852023.070    22852031.629          12.250
        12.500
    936388.032 6    727744.701 6  20795613.242    20795619.457          19.500
        23.750
 99  3  9  1 18 15.0000000  0  6G 5G 6G10G17G24G30
   3274493.778 6   2538526.071 6  22118471.602    22118479.738          15.250
        17.000
  -1619872.824 6  -1262236.886 6  21363794.016    21363800.875          19.500
        21.500
   1483952.902 6   1156327.878 6  21425712.727    21425720.027          18.250
        19.750
  -2280689.166 5  -1777153.262 6  23432434.883    23432444.582           9.250
        12.750
   2839466.724 6   2212571.647 6  22860013.773    22860022.469          12.250
        12.750
    955665.007 6    742765.733 6  20799281.492    20799287.738          19.500
        23.750
 99  3  9  1 18 30.0000000  0  6G 5G 6G10G17G24G30
   3325065.751 6   2577932.790 6  22128095.125    22128103.199          15.000
        17.000
  -1640951.914 6  -1278662.117 6  21359782.664    21359789.535          19.250
        21.500
   1510873.651 6   1177305.103 6  21430835.633    21430842.859          18.250
        19.750
  -2311001.934 5  -1800773.512 6  23426665.766    23426676.457           9.250
        12.500
   2881470.558 6   2245301.914 6  22868006.992    22868016.207          12.250
        13.000
    975087.869 6    757900.435 6  20802977.570    20802983.859          19.250
        23.750
 99  3  9  1 18 45.0000000  0  6G 5G 6G10G17G24G30
   3375726.123 6   2617408.383 6  22137735.422    22137743.629          15.000
        17.000
  -1661981.857 6  -1295049.045 6  21355780.711    21355787.551          19.500
        21.500
   1537942.999 6   1198398.116 6  21435986.711    21435994.051          18.250
        19.750
  -2341249.358 5  -1824342.839 6  23420910.055    23420920.039           9.250
        12.500
   2923495.830 6   2278048.878 6  22876004.102    22876012.324          12.500
        12.750
    994659.693 6    773151.211 6  20806701.984    20806708.254          19.500
        23.750
 99  3  9  1 19  0.0000000  0  6G 5G 6G10G17G24G30
   3426465.409 6   2656945.472 6  22147390.742    22147398.984          14.750
        17.000
  -1682959.259 6  -1311395.034 6  21351789.031    21351795.855          19.500
        21.500
   1565158.668 6   1219605.144 6  21441165.672    21441172.969          18.000
        19.750
  -2371435.963 5  -1847864.783 6  23415165.969    23415175.984           9.500
        12.500
   2965541.175 6   2310811.499 6  22884005.008    22884014.105          12.250
        13.000
   1014376.842 6    788515.230 6  20810453.961    20810460.262          19.250
        23.750
 99  3  9  1 19 15.0000000  0  6G 5G 6G10G17G24G30
   3477286.260 6   2696546.115 6  22157061.695    22157069.875          14.750
        17.000
  -1703874.381 6  -1327692.500 6  21347808.875    21347815.699          19.500
        21.500
   1592523.153 6   1240928.131 6  21446372.922    21446380.234          18.000
        19.750
  -2401561.594 5  -1871339.220 6  23409433.258    23409442.574           9.750
        12.250
   3007613.147 6   2343594.853 6  22892011.352    22892019.551          12.750
        13.000
   1034246.216 6    803997.862 6  20814234.977    20814241.219          19.250
        23.750
 99  3  9  1 19 30.0000000  0  6G 5G 6G10G17G24G30
   3528182.515 6   2736205.521 6  22166746.945    22166755.250          14.750
        17.000
  -1724727.178 6  -1343941.397 6  21343840.609    21343847.434          19.750
        21.750
   1620033.711 6   1262364.943 6  21451607.984    21451615.297          18.000
        19.750
  -2431631.953 5  -1894770.572 6  23403710.969    23403721.168           9.750
        12.500
   3049707.802 6   2376395.895 6  22900021.344    22900030.469          12.750
        13.000
   1054264.667 6    819596.662 6  20818044.297    20818050.547          19.250
        23.750
 99  3  9  1 19 45.0000000  0  6G 5G 6G10G17G24G30
   3579154.286 6   2775923.756 6  22176446.547    22176454.816          14.750
        17.000
  -1745515.875 6  -1360140.343 6  21339884.648    21339891.512          19.750
        21.750
   1647691.341 6   1283916.351 6  21456871.086    21456878.363          18.000
        19.750
  -2461651.365 5  -1918162.237 6  23397997.805    23398007.906           9.500
        12.250
   3091824.895 6   2409214.406 6  22908036.164    22908044.527          12.500
        12.750
   1074431.413 6    835311.009 6  20821881.953    20821888.254          19.250
        23.750
 99  3  9  1 20  0.0000000  0  6G 5G 6G10G17G24G30
   3630199.782 6   2815699.455 6  22186160.281    22186168.477          14.500
        17.000
  -1766245.928 7  -1376293.591 6  21335939.891    21335946.656          20.000
        21.750
   1675490.472 6   1305578.031 6  21462161.055    21462168.492          18.000
        19.750
  -2491620.512 5  -1941514.735 6  23392295.695    23392305.398           9.750
        12.500
   3133961.201 6   2442047.904 6  22916054.352    22916062.918          12.500
        12.750
   1094747.820 6    851141.982 6  20825748.102    20825754.332          19.250
        23.750
 99  3  9  1 20 15.0000000  0  6G 5G 6G10G17G24G30
   3681317.276 6   2855531.251 6  22195887.531    22195895.832          14.250
        17.000
  -1786915.756 6  -1392399.917 6  21332006.523    21332013.234          19.750
        21.750
   1703430.391 6   1327349.406 6  21467477.797    21467485.242          17.750
        19.750
  -2521539.848 5  -1964828.408 6  23386601.305    23386611.605           9.500
        12.250
   3176115.375 6   2474895.318 6  22924075.867    22924084.793          12.500
        13.000
   1115216.248 6    867091.412 6  20829642.992    20829649.270          19.250
        23.500
 99  3  9  1 20 30.0000000  0  6G 5G 6G10G17G24G30
   3732510.482 6   2895422.050 6  22205629.250    22205637.621          14.250
        17.000
  -1807522.117 7  -1408456.783 6  21328085.125    21328091.922          20.000
        21.750
   1731513.649 6   1349232.475 6  21472821.945    21472829.270          18.000
        19.750
  -2551407.282 5  -1988101.641 6  23380917.680    23380927.910           9.500
        12.250
   3218289.832 6   2507758.530 6  22932101.859    22932110.219          12.500
        13.000
   1135839.859 6    883161.755 6  20833567.461    20833573.598          19.250
        23.750
 99  3  9  1 20 45.0000000  0  6G 5G 6G10G17G24G30
   3783782.095 6   2935373.936 6  22215386.109    22215394.371          14.250
        17.000
  -1828064.950 7  -1424464.151 6  21324176.094    21324182.828          20.000
        21.750
   1759743.805 6   1371230.017 6  21478193.938    21478201.320          18.000
        19.750
  -2581215.534 5  -2011328.764 5  23375245.438    23375255.133           9.750
        11.750
   3260486.127 6   2540638.772 6  22940130.406    22940139.930          12.250
        12.750
   1156621.634 6    899355.350 6  20837522.164    20837528.418          19.500
        23.750
 99  3  9  1 21  0.0000000  0  6G 5G 6G10G17G24G30
   3835125.451 6   2975381.722 6  22225156.195    22225164.582          14.000
        17.000
  -1848547.650 7  -1440424.659 6  21320278.320    21320285.023          20.250
        21.750
   1788116.736 6   1393338.800 6  21483593.164    21483600.516          18.000
        19.750
  -2610970.429 5  -2034514.309 5  23369583.625    23369593.109           9.750
        11.750
   3302696.446 6   2573529.925 6  22948164.086    22948171.898          12.750
        12.750
   1177559.084 6    915670.251 6  20841506.625    20841512.781          19.500
        23.500
 99  3  9  1 21 15.0000000  0  6G 5G 6G10G17G24G30
   3886547.944 6   3015451.182 6  22234941.695    22234950.102          14.000
        17.250
  -1868967.464 7  -1456336.161 6  21316392.453    21316399.094          20.250
        21.750
   1816636.849 6   1415562.279 6  21489020.305    21489027.629          18.000
        19.750
  -2640666.797 5  -2057654.257 5  23363932.477    23363941.898           9.750
        11.750
   3344919.898 6   2606431.328 6  22956198.156    22956207.191          12.500
        12.750
   1198659.649 6    932112.252 6  20845521.867    20845528.004          19.500
        23.500
 99  3  9  1 21 30.0000000  0  6G 5G 6G10G17G24G30
   3938044.206 6   3055578.119 6  22244741.141    22244749.488          13.500
        17.250
  -1889339.321 7  -1472210.306 6  21312515.852    21312522.508          20.250
        21.750
   1845293.771 6   1437892.358 6  21494473.578    21494480.777          18.250
        19.750
  -2670314.152 5  -2080756.003 6  23358290.516    23358300.191           9.750
        12.000
   3387145.752 6   2639334.589 6  22964233.602    22964242.297          12.500
        12.500
   1219914.638 6    948674.581 6  20849566.531    20849572.699          19.500
        23.750
 99  3  9  1 21 45.0000000  0  6G 5G 6G10G17G24G30
   3989624.850 6   3095770.817 6  22254556.547    22254565.023          13.500
        17.250
  -1909658.278 7  -1488043.220 6  21308649.164    21308655.859          20.250
        21.750
   1874096.358 6   1460335.950 6  21499954.469    21499961.723          18.250
        19.750
  -2699902.867 5  -2103812.065 5  23352659.875    23352669.738           9.500
        11.750
   3429380.401 6   2672244.716 6  22972271.219    22972279.211          12.750
        12.500
   1241330.975 6    965362.644 6  20853642.047    20853648.129          19.500
        23.500
 99  3  9  1 22  0.0000000  0  6G 5G 6G10G17G24G30
   4041295.027 6   3136033.277 6  22264389.047    22264397.547          13.500
        17.250
  -1929923.236 7  -1503834.056 6  21304793.016    21304799.684          20.250
        21.750
   1903045.309 6   1482893.585 6  21505463.219    21505470.500          18.000
        19.750
  -2729429.237 5  -2126819.540 6  23347040.664    23347050.996           9.500
        12.000
   3471625.743 6   2705163.172 6  22980309.867    22980318.465          12.500
        12.500
   1262912.481 6    982179.405 6  20857748.828    20857754.898          19.750
        23.500
 99  3  9  1 22 15.0000000  0  6G 5G 6G10G17G24G30
   4093046.905 6   3176359.389 6  22274237.117    22274245.613          13.500
        17.000
  -1950141.799 7  -1519588.742 6  21300945.484    21300952.039          20.250
        21.750
   1932131.053 6   1505557.806 6  21510998.078    21511005.344          18.000
        19.750
  -2758900.140 5  -2149783.797 6  23341433.141    23341443.031           9.750
        12.250
   3513871.962 6   2738082.302 6  22988348.758    22988357.742          12.250
        12.500
   1284648.071 6    999116.229 6  20861884.836    20861890.922          19.500
        23.750
 99  3  9  1 22 30.0000000  0  6G 5G 6G10G17G24G30
   4144886.130 6   3216753.578 6  22284101.656    22284110.211          13.250
        17.000
  -1970309.447 7  -1535303.750 6  21297107.641    21297114.254          20.250
        21.750
   1961357.016 6   1528331.301 6  21516559.641    21516566.832          18.250
        19.750
  -2788314.133 5  -2172703.697 6  23335835.766    23335845.473           9.750
        12.250
   3556122.646 6   2771004.915 6  22996389.461    22996397.723          12.750
        12.500
   1306536.482 6   1016172.144 6  20866050.195    20866056.242          19.500
        23.750
 99  3  9  1 22 45.0000000  0  6G 5G 6G10G17G24G30
   4196816.957 6   3257219.135 6  22293984.008    22293992.492          13.250
        17.000
  -1990423.798 7  -1550977.243 6  21293279.977    21293286.652          20.250
        21.750
   1990724.538 6   1551215.096 6  21522148.016    21522155.363          18.250
        19.750
  -2817666.176 5  -2195575.339 5  23330249.969    23330259.668           9.750
        11.750
   3598382.575 6   2803934.736 6  23004430.508    23004439.105          12.250
        12.250
   1328577.757 6   1033347.161 6  20870244.516    20870250.609          19.750
        23.750
 99  3  9  1 23  0.0000000  0  6G 5G 6G10G17G24G30
   4248837.349 6   3297754.490 6  22303883.102    22303891.684          13.250
        17.000
  -2010484.392 7  -1566608.836 6  21289462.547    21289469.105          20.250
        21.750
   2020232.114 6   1574208.029 6  21527763.164    21527770.426          18.250
        19.500
  -2846958.215 5  -2218400.218 5  23324676.055    23324685.258          10.000
        11.750
   3640652.407 6   2836872.265 6  23012474.008    23012482.875          12.250
        12.500
   1350770.698 6   1050640.371 6  20874467.633    20874473.723          19.500
        23.750
 99  3  9  1 23 15.0000000  0  6G 5G 6G10G17G24G30
   4300945.730 6   3338358.410 6  22313799.039    22313807.500          13.250
        17.000
  -2030494.858 7  -1582201.373 6  21285654.586    21285661.160          20.250
        21.750
   2049877.049 6   1597307.991 6  21533404.313    21533411.621          18.000
        19.500
  -2876194.656 5  -2241181.792 5  23319112.328    23319121.699          10.000
        11.750
   3682932.574 6   2869817.860 6  23020520.281    23020528.156          12.500
        12.250
   1373112.051 6   1068049.217 6  20878719.000    20878725.074          19.750
        23.750
 99  3  9  1 23 30.0000000  0  6G 5G 6G10G17G24G30
   4353141.582 6   3379030.486 6  22323731.398    22323740.105          13.000
        17.000
  -2050457.787 7  -1597756.866 6  21281855.797    21281862.344          20.250
        21.750
   2079659.914 6   1620515.436 6  21539071.883    21539079.160          18.000
        19.500
  -2905375.021 5  -2263919.646 6  23313558.906    23313569.043           9.750
        12.000
   3725227.209 6   2902774.720 6  23028568.266    23028577.848          12.250
        12.750
   1395600.511 6   1085572.699 6  20882998.625    20883004.715          19.500
        23.500
 99  3  9  1 23 45.0000000  0  6G 5G 6G10G17G24G30
   4405425.810 6   3419771.427 6  22333680.969    22333689.500          13.000
        16.750
  -2070364.908 7  -1613268.877 6  21278067.563    21278074.102          20.250
        22.000
   2109585.468 6   1643834.062 6  21544766.539    21544773.797          18.000
        19.500
  -2934494.612 5  -2286610.152 6  23308017.750    23308027.805           9.750
        12.000
   3767542.037 6   2935747.315 5  23036620.609    23036628.320          12.250
        11.750
   1418238.209 6   1103212.470 6  20887306.328    20887312.434          19.500
        23.500
 99  3  9  1 24  0.0000000  0  6G 5G 6G10G17G24G30
   4457790.212 6   3460574.842 6  22343645.453    22343654.000          13.000
        16.750
  -2090217.880 7  -1628738.685 6  21274289.531    21274296.129          20.250
        21.750
   2139651.601 6   1667262.230 6  21550487.875    21550495.133          18.000
        19.500
  -2963556.948 5  -2309256.049 6  23302487.711    23302497.484          10.000
        12.250
   3809871.259 6   2968731.124 6  23044675.617    23044684.773          12.500
        12.500
   1441019.907 6   1120964.449 6  20891641.602    20891647.664          19.500
        23.500
 99  3  9  1 24 15.0000000  0  6G 5G 6G10G17G24G30
   4510229.919 6   3501436.934 6  22353624.695    22353633.121          13.000
        16.750
  -2110017.575 7  -1644166.988 6  21270521.828    21270528.348          20.250
        22.000
   2169856.981 6   1690798.909 6  21556235.711    21556243.043          17.750
        19.500
  -2992563.261 5  -2331858.291 6  23296968.586    23296977.137          10.250
        12.250
   3852213.821 6   3001725.341 6  23052733.516    23052741.027          12.500
        12.250
   1463943.197 6   1138826.755 6  20896003.508    20896009.609          19.250
        23.500
 99  3  9  1 24 30.0000000  0  6G 5G 6G10G17G24G30
   4562737.554 6   3542351.954 6  22363616.508    22363624.820          13.000
        16.750
  -2129768.842 7  -1659557.556 6  21266763.211    21266769.871          20.000
        22.000
   2200198.866 6   1714441.947 6  21562009.617    21562016.902          17.750
        19.500
  -3021516.450 5  -2354419.141 6  23291458.094    23291468.395          10.000
        12.500
   3894568.175 6   3034728.724 6  23060792.906    23060802.016          12.250
        12.500
   1487005.831 6   1156797.647 6  20900392.227    20900398.434          19.250
        23.500
 99  3  9  1 24 45.0000000  0  6G 5G 6G10G17G24G30
   4615311.079 6   3583318.325 6  22373620.727    22373629.266          13.000
        16.500
  -2149471.807 7  -1674910.478 6  21263013.930    21263020.492          20.250
        22.000
   2230677.333 6   1738191.423 6  21567809.398    21567816.738          17.750
        19.500
  -3050416.238 5  -2376938.374 6  23285958.656    23285968.023          10.000
        12.250
   3936935.827 6   3067742.481 6  23068854.758    23068863.348          12.250
        12.250
   1510211.647 6   1174880.110 6  20904808.211    20904814.277          19.250
        23.250
 99  3  9  1 25  0.0000000  0  6G 5G 6G10G17G24G30
   4667949.906 6   3624335.572 6  22383637.852    22383646.191          13.000
        16.500
  -2169124.682 7  -1690224.373 6  21259274.039    21259280.531          20.000
        22.000
   2261295.716 6   1762049.919 6  21573635.766    21573643.086          17.750
        19.500
  -3079260.555 5  -2399414.379 6  23280469.672    23280479.238          10.000
        12.250
   3979319.692 6   3100768.879 6  23076921.438    23076929.531          12.500
        12.250
   1533565.917 6   1193078.247 6  20909252.297    20909258.453          18.750
        23.250
 99  3  9  1 25 15.0000000  0  6G 5G 6G10G17G24G30
   4720652.552 6   3665402.556 6  22393666.820    22393675.152          13.250
        16.500
  -2188729.075 7  -1705500.499 6  21255543.328    21255549.902          20.250
        22.000
   2292054.677 6   1786017.956 6  21579489.086    21579496.352          17.750
        19.500
  -3108052.655 5  -2421849.700 6  23274990.195    23274999.512          10.000
        12.000
   4021718.922 6   3133807.240 6  23084988.594    23084997.543          12.250
        12.250
   1557068.735 6   1211392.139 6  20913724.656    20913730.961          19.000
        23.250
 99  3  9  1 25 30.0000000  0  6G 5G 6G10G17G24G30
   4773417.442 6   3706518.035 6  22403707.766    22403716.160          13.250
        16.500
  -2208283.483 7  -1720737.667 6  21251822.398    21251829.000          20.000
        22.000
   2322953.071 6   1810094.644 6  21585368.836    21585376.148          17.750
        19.500
  -3136792.595 5  -2444244.389 6  23269521.695    23269531.238          10.000
        12.500
   4064130.553 6   3166855.274 6  23093059.844    23093067.898          12.250
        12.250
   1580721.798 6   1229823.106 6  20918225.758    20918231.957          18.750
        23.250
 99  3  9  1 25 45.0000000  0  6G 5G 6G10G17G24G30
   4826247.164 6   3747684.033 6  22413760.914    22413769.176          13.250
        16.250
  -2227780.357 7  -1735930.000 6  21248112.211    21248118.766          20.000
        22.000
   2353993.530 6   1834282.033 6  21591275.609    21591282.961          17.500
        19.500
  -3165474.813 5  -2466594.082 6  23264063.789    23264072.945          10.250
        12.500
   4106555.896 6   3199913.986 6  23101132.953    23101141.875          12.250
        12.500
   1604530.112 6   1248375.047 6  20922756.281    20922762.516          18.750
        23.250
 99  3  9  1 26  0.0000000  0  6G 5G 6G10G17G24G30
   4879143.691 6   3788902.089 6  22423826.867    22423835.125          13.250
        16.250
  -2247220.425 6  -1751078.078 6  21244412.922    21244419.430          19.750
        22.250
   2385174.922 6   1858579.241 6  21597209.164    21597216.512          17.500
        19.500
  -3194099.548 5  -2488899.000 6  23258616.664    23258626.066          10.250
        12.500
   4148994.423 5   3232982.973 6  23109208.578    23109216.531          11.750
        12.250
   1628495.680 6   1267049.521 6  20927316.719    20927322.953          18.500
        23.250
 99  3  9  1 26 15.0000000  0  6G 5G 6G10G17G24G30
   4932106.049 6   3830171.442 6  22433905.289    22433913.598          13.250
        16.000
  -2266609.190 6  -1766186.174 6  21240723.188    21240729.750          19.750
        22.250
   2416493.687 6   1882983.492 6  21603168.992    21603176.359          17.500
        19.500
  -3222669.558 5  -2511161.261 6  23253179.883    23253188.992          10.000
        12.750
   4191447.919 5   3266063.624 6  23117287.195    23117296.414          11.750
        12.500
   1652617.025 6   1285845.384 6  20931906.844    20931913.051          18.500
        23.000
 99  3  9  1 26 30.0000000  0  6G 5G 6G10G17G24G30
   4985135.621 6   3871493.166 6  22443996.422    22444004.605          13.250
        16.000
  -2285945.277 7  -1781253.220 6  21237043.656    21237050.336          20.000
        22.250
   2447946.801 6   1907492.427 6  21609154.320    21609161.715          17.750
        19.500
  -3251185.153 5  -2533381.131 6  23247752.844    23247762.730          10.000
        12.750
   4233920.029 6   3299158.780 6  23125369.305    23125377.746          12.250
        12.500
   1676894.480 6   1304762.892 6  20936526.750    20936532.969          18.500
        23.250
 99  3  9  1 26 45.0000000  0  6G 5G 6G10G17G24G30
   5038235.002 6   3912869.286 6  22454100.883    22454109.133          13.250
        16.000
  -2305225.541 6  -1796276.775 6  21233374.805    21233381.410          19.750
        22.500
   2479529.973 6   1932102.707 6  21615164.375    21615171.754          17.500
        19.500
  -3279646.801 5  -2555558.968 6  23242337.039    23242346.488          10.000
        12.750
   4276409.926 6   3332267.800 6  23133455.266    23133463.852          12.000
        12.500
   1701328.532 6   1323802.423 6  20941176.383    20941182.695          18.500
        23.000
 99  3  9  1 27  0.0000000  0  6G 5G 6G10G17G24G30
   5091404.517 6   3954300.066 6  22464218.773    22464226.887          13.500
        16.000
  -2324447.372 6  -1811254.786 6  21229716.945    21229723.535          19.750
        22.500
   2511241.974 6   1956813.384 6  21621199.016    21621206.324          17.750
        19.750
  -3308054.361 5  -2577694.655 6  23236931.211    23236940.770          10.000
        12.750
   4318915.277 5   3365388.862 6  23141543.500    23141551.551          11.750
        12.250
   1725914.530 6   1342960.354 6  20945854.781    20945861.016          18.500
        23.250
 99  3  9  1 27 15.0000000  0  6G 5G 6G10G17G24G30
   5144643.401 6   3995784.888 6  22474349.969    22474358.105          13.250
        15.750
  -2343609.696 6  -1826186.435 6  21226070.211    21226076.895          19.500
        22.750
   2543082.817 6   1981624.442 6  21627258.070    21627265.457          17.750
        19.750
  -3336406.200 5  -2599786.926 6  23231535.906    23231545.145          10.000
        12.750
   4361435.973 5   3398521.882 6  23149634.930    23149644.020          11.750
        12.750
   1750650.712 6   1362235.306 6  20950561.938    20950568.207          18.500
        23.250
 99  3  9  1 27 30.0000000  0  6G 5G 6G10G17G24G30
   5197949.074 6   4037321.759 6  22484493.656    22484501.691          13.750
        15.750
  -2362713.229 6  -1841072.269 6  21222435.078    21222441.672          19.750
        22.750
   2575047.375 6   2006531.899 6  21633340.805    21633348.090          17.750
        19.750
  -3364702.335 5  -2621835.796 6  23226151.477    23226160.488          10.250
        12.750
   4403968.122 6   3431663.819 6  23157728.445    23157737.574          12.000
        13.000
   1775533.246 6   1381624.305 6  20955296.930    20955303.078          18.750
        23.000
 99  3  9  1 28  0.0000000  4  2
END OF STATIC OBSERVATION                                   COMMENT
1.390                                                       COMMENT
 99  3  9  1 28  0.0000000  0  6G 5G 6G10G17G24G30
   5304778.628 6   4120565.526 6  22504822.648    22504830.746          13.500
        15.500
  -2400724.516 6  -1870691.378 6  21215201.719    21215208.355          19.750
        22.750
   2639361.686 6   2056646.978 6  21645579.438    21645586.652          17.750
        20.000
  -3421115.548 5  -2665794.018 6  23215416.070    23215425.754          10.000
        13.250
   4489078.792 5   3497983.840 6  23173924.258    23173933.313          11.500
        12.750
   1825738.926 6   1420745.630 6  20964850.906    20964856.996          19.000
        23.250
 99  3  9  1 28 15.0000000  4  1
1.390                                                       COMMENT
 99  3  9  1 28 15.0000000  0  6G 5G 6G10G17G24G30
   5358294.389 6   4162266.091 6  22515006.531    22515014.547          13.500
        15.250
  -2419642.572 6  -1885432.681 6  21211601.766    21211608.367          19.750
        22.750
   2671702.668 6   2081847.764 6  21651733.570    21651740.949          17.750
        19.750
  -3449245.979 5  -2687713.762 6  23210062.680    23210072.660          10.000
        13.500
   4531651.957 5   3531157.746 6  23182026.109    23182034.715          11.500
        12.750
   1851047.631 6   1440466.706 6  20969667.016    20969673.094          19.250
        23.250
 99  3  9  1 28 30.0000000  0  6G 5G 6G10G17G24G30
   5411875.364 6   4204017.486 6  22525202.531    22525210.668          13.500
        15.250
  -2438496.562 6  -1900124.064 6  21208014.000    21208020.574          19.750
        22.750
   2704170.233 6   2107147.179 6  21657912.039    21657919.324          17.750
        19.750
  -3477322.683 5  -2709591.654 6  23204720.578    23204729.832          10.000
        13.500
   4574236.678 5   3564340.655 6  23190129.336    23190138.301          11.250
        13.000
   1876492.923 6   1460294.209 6  20974509.031    20974515.211          19.250
        23.500
 99  3  9  1 28 45.0000000  0  6G 5G 6G10G17G24G30
   5465526.321 6   4245823.408 6  22535412.016    22535420.164          13.250
        15.250
  -2457280.417 6  -1914760.797 6  21204439.367    21204445.992          19.750
        23.000
   2736769.447 6   2132549.176 6  21664115.469    21664122.699          17.750
        19.750
  -3505340.450 5  -2731423.618 6  23199388.367    23199398.004           9.750
        13.500
   4616834.308 5   3597533.615 6  23198235.797    23198244.500          11.000
        12.750
   1902078.456 6   1480230.996 6  20979377.766    20979383.934          19.250
        23.500
 99  3  9  1 29  0.0000000  0  6G 5G 6G10G17G24G30
   5519240.650 6   4287678.704 6  22545633.547    22545641.656          13.500
        15.250
  -2476004.540 6  -1929350.983 6  21200876.305    21200882.867          19.750
        23.000
   2769497.331 6   2158051.439 6  21670343.336    21670350.535          17.750
        19.750
  -3533304.059 5  -2753213.386 6  23194067.242    23194076.605           9.750
        13.500
   4659436.176 5   3630729.884 6  23206342.219    23206351.105          11.000
        12.750
   1927797.427 6   1500271.762 6  20984272.000    20984278.086          19.500
        23.500
 99  3  9  1 29 15.0000000  0  6G 5G 6G10G17G24G30
   5573024.101 6   4329587.870 6  22555868.023    22555876.336          13.500
        15.250
  -2494665.843 6  -1943892.215 6  21197325.141    21197331.680          19.750
        23.000
   2802365.112 6   2183662.712 6  21676597.750    21676605.082          17.750
        19.750
  -3561208.636 5  -2774957.152 6  23188757.414    23188766.730          10.000
        13.500
   4702050.061 5   3663935.525 6  23214451.570    23214459.961          11.000
        12.500
   1953656.862 6   1520421.986 6  20989192.945    20989198.992          19.750
        23.500
 99  3  9  1 29 30.0000000  0  6G 5G 6G10G17G24G30
   5626877.728 6   4371551.711 6  22566116.102    22566124.297          13.500
        15.250
  -2513267.361 7  -1958386.871 6  21193785.328    21193791.871          20.000
        23.000
   2835371.726 6   2209382.162 6  21682878.773    21682886.105          17.750
        19.750
  -3589057.958 5  -2796657.877 6  23183457.602    23183466.547          10.000
        13.500
   4744672.990 5   3697148.202 6  23222562.336    23222571.395          10.750
        12.750
   1979656.996 6   1540681.828 6  20994140.633    20994146.684          19.750
        23.500
 99  3  9  1 29 45.0000000  0  6G 5G 6G10G17G24G30
   5680807.042 6   4413574.537 6  22576378.539    22576386.848          13.250
        15.000
  -2531805.457 6  -1972832.099 6  21190257.734    21190264.309          19.750
        23.000
   2868521.731 6   2235213.347 6  21689186.945    21689194.277          17.500
        19.750
  -3616850.869 5  -2818314.638 6  23178168.469    23178177.984           9.750
        13.750
   4787305.736 5   3730368.532 6  23230675.367    23230684.203          11.000
        12.750
   2005801.837 6   1561054.443 6  20999115.758    20999121.867          19.750
        23.750
 99  3  9  1 30  0.0000000  0  6G 5G 6G10G17G24G30
   5734809.695 6   4455654.503 6  22586654.977    22586663.207          13.250
        15.000
  -2550282.212 7  -1987229.527 6  21186741.609    21186748.207          20.000
        23.000
   2901815.787 6   2261156.778 6  21695522.586    21695529.934          17.500
        19.750
  -3644588.179 5  -2839928.061 6  23172889.961    23172899.746           9.750
        14.000
   4829948.332 5   3763596.543 6  23238789.242    23238798.527          10.500
        12.500
   2032091.425 6   1581539.845 6  21004118.570    21004124.590          19.750
        23.750
 99  3  9  1 30 15.0000000  0  6G 5G 6G10G17G24G30
   5788881.380 6   4497788.263 6  22596944.445    22596952.660          13.250
        15.000
  -2568704.549 7  -2001584.552 6  21183235.977    21183242.523          20.000
        23.000
   2935250.471 6   2287209.791 6  21701885.023    21701892.309          17.500
        19.500
  -3672269.368 5  -2861497.769 6  23167622.695    23167632.348           9.750
        14.000
   4872596.750 5   3796829.087 6  23246905.422    23246913.793          10.500
        12.250
   2058524.281 6   1602136.883 6  21009148.508    21009154.605          19.750
        23.750
 99  3  9  1 30 30.0000000  0  6G 5G 6G10G17G24G30
   5843018.471 6   4539972.989 6  22607246.422    22607254.719          13.250
        15.000
  -2587073.625 7  -2015898.083 6  21179740.266    21179746.895          20.000
        23.000
   2968826.216 6   2313372.719 6  21708274.359    21708281.629          17.500
        19.500
  -3699890.376 5  -2883020.586 6  23162366.586    23162375.855           9.750
        14.000
   4915249.751 5   3830065.206 6  23255022.188    23255031.090          10.500
        12.500
   2085099.335 7   1622844.721 6  21014205.609    21014211.672          20.000
        24.000
 99  3  9  1 30 45.0000000  0  6G 5G 6G10G17G24G30
   5897224.299 6   4582211.272 6  22617561.516    22617569.801          13.250
        15.000
  -2605388.564 6  -2030169.426 6  21176255.195    21176261.699          19.750
        23.000
   3002540.552 6   2339643.647 6  21714689.898    21714697.133          17.250
        19.500
  -3727449.776 5  -2904495.387 6  23157121.977    23157131.344           9.750
        14.000
   4957908.555 5   3863305.838 6  23263139.953    23263148.699          10.750
        12.250
   2111819.343 6   1643665.510 6  21019290.258    21019296.348          19.750
        24.000
 99  3  9  1 31  0.0000000  0  6G 5G 6G10G17G24G30
   5951502.004 6   4624505.564 6  22627890.039    22627898.410          13.250
        15.000
  -2623652.536 7  -2044401.060 6  21172779.563    21172786.066          20.000
        23.000
   3036389.646 6   2366019.569 6  21721131.266    21721138.258          17.000
        19.250
  -3754948.883 5  -2925923.210 6  23151889.672    23151898.355          10.000
        14.000
   5000571.785 5   3896549.928 5  23271257.977    23271266.695          10.250
        11.750
   2138683.758 6   1664598.826 6  21024402.195    21024408.289          19.750
        24.000
 99  3  9  1 31 15.0000000  0  6G 5G 6G10G17G24G30
   6005851.574 6   4666855.861 6  22638232.664    22638240.941          13.000
        14.750
  -2641861.058 7  -2058589.478 6  21169314.586    21169321.090          20.000
        23.000
   3070374.991 6   2392501.667 6  21727598.305    21727605.551          17.000
        19.000
  -3782386.484 5  -2947303.113 6  23146668.117    23146677.270          10.000
        14.000
   5043240.646 5   3929798.414 5  23279377.938    23279386.188          10.500
        11.750
   2165695.090 6   1685646.620 6  21029542.188    21029548.359          19.500
        24.250
 99  3  9  1 31 30.0000000  0  6G 5G 6G10G17G24G30
   6060269.599 6   4709259.496 6  22648588.078    22648596.250          13.000
        14.750
  -2660012.894 7  -2072733.730 6  21165860.391    21165866.852          20.000
        23.000
   3104491.021 6   2419085.599 6  21734090.461    21734097.543          17.000
        18.750
  -3809765.718 5  -2968637.522 6  23141457.461    23141467.047           9.750
        14.000
   5085913.378 5   3963049.907 6  23287498.414    23287507.148          10.500
        12.000
   2192848.935 6   1706805.468 6  21034709.453    21034715.563          19.500
        24.250
 99  3  9  1 31 45.0000000  0  6G 5G 6G10G17G24G30
   6114755.193 6   4751715.786 6  22658956.133    22658964.563          13.000
        14.750
  -2678106.082 7  -2086832.284 6  21162417.391    21162423.719          20.250
        23.000
   3138734.743 6   2445769.032 6  21740606.578    21740613.852          17.000
        18.750
  -3837082.047 5  -2989922.925 6  23136259.242    23136268.852           9.750
        14.000
   5128591.307 5   3996305.445 6  23295620.133    23295628.664          10.500
        12.250
   2220146.828 6   1728076.557 6  21039904.148    21039910.266          19.500
        24.500
 99  3  9  1 32  0.0000000  0  6G 5G 6G10G17G24G30
   6169301.309 6   4794219.233 6  22669336.305    22669344.531          13.250
        14.750
  -2696144.728 7  -2100888.342 6  21158984.633    21158991.000          20.000
        23.000
   3173100.430 6   2472547.501 6  21747146.164    21747153.352          17.000
        18.500
  -3864337.067 5  -3011160.539 6  23131073.297    23131082.461          10.000
        14.000
   5171274.350 5   4029564.958 5  23303740.984    23303750.336           9.750
        11.750
   2247585.182 6   1749457.105 6  21045125.320    21045131.598          19.250
        24.500
 99  3  9  1 32 15.0000000  0  6G 5G 6G10G17G24G30
   6223908.319 6   4836770.133 6  22679727.297    22679735.695          12.750
        14.500
  -2714127.623 7  -2114900.950 6  21155562.594    21155569.070          20.000
        23.000
   3207587.879 6   2499420.851 6  21753708.969    21753716.070          17.000
        18.500
  -3891528.667 5  -3032348.742 6  23125898.977    23125908.086          10.000
        14.250
   5213965.289 5   4062830.633 5  23311865.844    23311874.414          10.000
        11.500
   2275165.807 6   1770948.499 6  21050373.930    21050380.059          18.750
        24.500
 99  3  9  1 32 30.0000000  0  6G 5G 6G10G17G24G30
   6278579.144 6   4879370.750 6  22690131.055    22690139.297          12.500
        14.500
  -2732051.558 7  -2128867.615 6  21152151.828    21152158.195          20.000
        23.000
   3242197.891 6   2526389.711 6  21760295.055    21760302.148          16.750
        18.250
  -3918658.473 5  -3053488.791 6  23120736.250    23120745.371          10.000
        14.250
   5256665.397 5   4096103.471 5  23319991.211    23319999.840           9.750
        11.500
   2302890.108 6   1792551.860 6  21055649.563    21055655.746          18.750
        24.250
 99  3  9  1 32 45.0000000  0  6G 5G 6G10G17G24G30
   6333310.507 6   4922018.546 6  22700545.898    22700554.406          12.250
        14.500
  -2749917.072 6  -2142788.770 6  21148752.141    21148758.492          19.750
        23.000
   3276925.182 6   2553449.948 6  21766903.383    21766910.492          16.750
        18.250
  -3945734.237 5  -3074586.737 6  23115583.828    23115592.730          10.500
        14.250
   5299369.264 5   4129379.220 5  23328117.297    23328125.984           9.750
        11.250
   2330754.192 6   1814264.136 6  21060952.008    21060958.203          18.500
        24.500
 99  3  9  1 33  0.0000000  0  6G 5G 6G10G17G24G30
   6388102.630 6   4964713.688 6  22710972.539    22710981.066          12.750
        14.500
  -2767725.589 7  -2156665.498 6  21145363.203    21145369.574          20.250
        23.000
   3311767.995 6   2580600.209 6  21773533.789    21773540.863          17.000
        18.000
  -3972760.807 5  -3095646.342 6  23110440.430    23110449.824          10.000
        13.750
   5342073.146 5   4162654.969 5  23336243.242    23336252.363           9.750
        11.250
   2358756.560 6   1836084.175 6  21066280.422    21066286.750          18.250
        24.250
 99  3  9  1 33 15.0000000  0  6G 5G 6G10G17G24G30
   6442958.352 6   5007458.382 6  22721411.258    22721419.539          12.500
        14.250
  -2785470.870 6  -2170492.954 6  21141986.250    21141992.695          19.750
        22.500
   3346734.711 6   2607847.008 6  21780187.805    21780194.801          17.250
        18.250
  -3999732.994 5  -3116663.570 6  23105307.711    23105317.086          10.500
        14.250
   5384783.060 5   4195935.428 5  23344371.641    23344379.789          10.500
        11.000
   2386902.217 6   1858015.857 6  21071636.523    21071642.844          18.000
        24.500
 99  3  9  1 33 30.0000000  0  6G 5G 6G10G17G24G30
   6497871.447 6   5050247.795 6  22731861.086    22731869.297          12.750
        14.000
  -2803156.104 7  -2184273.630 6  21138621.023    21138627.391          20.250
        22.750
   3381823.386 6   2635188.849 6  21786865.000    21786872.047          17.000
        18.000
  -4026654.439 5  -3137641.250 6  23100185.164    23100194.078          10.500
        14.250
   5427497.636 5   4229219.529 5  23352499.156    23352508.348          10.000
        11.000
   2415188.686 6   1880057.264 6  21077019.234    21077025.621          18.000
        24.750
 99  3  9  1 33 45.0000000  0  6G 5G 6G10G17G24G30
   6552840.959 6   5093081.163 6  22742321.438    22742329.746          12.750
        14.250
  -2820785.219 7  -2198010.571 6  21135266.305    21135272.645          20.250
        22.750
   3417030.806 6   2662623.215 6  21793564.625    21793571.668          17.000
        18.000
  -4053527.978 5  -3158581.603 6  23095071.328    23095080.055          11.000
        14.000
   5470213.855 5   4262504.913 5  23360628.273    23360635.926          10.000
        10.750
   2443614.301 6   1902207.100 6  21082428.391    21082434.789          18.000
        24.750
 99  3  9  1 34  0.0000000  0  6G 5G 6G10G17G24G30
   6607869.479 6   5135960.504 6  22752792.914    22752801.266          12.500
        14.000
  -2838355.614 7  -2211701.755 6  21131922.531    21131928.852          20.250
        23.000
   3452361.344 6   2690153.525 6  21800287.664    21800294.727          17.000
        18.000
  -4080351.036 5  -3179482.622 6  23089966.961    23089975.664          10.750
        14.000
   5512932.883 5   4295792.479 5  23368756.578    23368765.984           9.500
        11.000
   2472182.482 6   1924468.031 6  21087864.664    21087871.148          17.750
        24.750
 99  3  9  1 34 15.0000000  0  6G 5G 6G10G17G24G30
   6662960.074 6   5178888.225 6  22763276.352    22763284.668          12.500
        14.000
  -2855861.265 7  -2225342.494 6  21128591.461    21128597.750          20.500
        23.000
   3487821.469 6   2717784.802 6  21807035.609    21807042.656          17.250
        18.000
  -4107123.611 5  -3200344.300 6  23084871.766    23084881.000          11.000
        14.250
   5555655.191 5   4329082.595 5  23376887.422    23376895.695          10.250
        11.000
   2500894.994 6   1946841.424 6  21093328.563    21093335.000          17.750
        24.750
 99  3  9  1 34 30.0000000  0  6G 5G 6G10G17G24G30
   6718110.613 6   5221862.647 6  22773771.172    22773779.410          12.500
        14.000
  -2873304.466 7  -2238934.569 6  21125272.094    21125278.477          20.250
        22.750
   3523408.755 6   2745515.169 6  21813807.703    21813814.668          17.000
        18.000
  -4133849.403 5  -3221169.527 6  23079785.938    23079795.277          10.750
        14.250
   5598376.939 5   4362372.275 5  23385017.141    23385024.672          10.250
        10.500
   2529746.919 6   1969323.445 6  21098818.875    21098825.363          17.750
        24.750
 99  3  9  1 34 45.0000000  0  6G 5G 6G10G17G24G30
   6773317.625 6   5264881.086 6  22784276.813    22784285.125          12.250
        14.000
  -2890687.351 7  -2252479.642 6  21121964.313    21121970.633          20.250
        23.000
   3559120.671 6   2773342.648 6  21820603.375    21820610.535          17.000
        17.750
  -4160529.487 5  -3241959.130 6  23074708.945    23074718.031          11.000
        14.000
   5641097.030 5   4395660.674 5  23393146.070    23393155.012           9.750
        11.000
   2558734.949 6   1991911.530 6  21104335.055    21104341.523          17.750
        24.750
 99  3  9  1 35  0.0000000  0  6G 5G 6G10G17G24G30
   6828582.801 6   5307944.840 6  22794793.438    22794801.730          12.250
        13.750
  -2908004.685 7  -2265973.640 6  21118668.906    21118675.234          20.250
        23.000
   3594962.635 6   2801271.467 6  21827423.813    21827430.750          16.750
        17.750
  -4187155.583 5  -3262706.664 6  23069642.391    23069651.270          11.000
        14.250
   5683821.497 5   4428952.455 5  23401276.055    23401285.207           9.500
        11.000
   2587864.893 6   2014610.196 6  21109878.445    21109884.789          17.500
        24.500
 99  3  9  1 35 15.0000000  0  6G 5G 6G10G17G24G30
   6883902.748 6   5351051.269 6  22805320.398    22805328.742          12.000
        13.500
  -2925259.695 7  -2279419.071 6  21115385.367    21115391.621          20.250
        23.000
   3630934.243 6   2829301.300 6  21834268.961    21834275.930          16.750
        17.750
  -4213727.154 5  -3283411.716 6  23064585.891    23064594.664          11.000
        14.250
   5726552.608 5   4462249.445 5  23409408.203    23409416.180          10.250
        10.500
   2617137.046 6   2037419.670 6  21115448.664    21115455.125          17.500
        24.500
 99  3  9  1 35 30.0000000  0  6G 5G 6G10G17G24G30
   6939269.343 5   5394194.048 6  22815856.313    22815864.586          11.750
        13.250
  -2942457.037 7  -2292819.563 6  21112112.766    21112118.945          20.250
        22.750
   3667029.139 6   2857427.203 6  21841137.570    21841144.527          17.000
        17.750
  -4240248.302 5  -3304077.480 6  23059539.164    23059547.766          11.250
        14.250
   5769286.782 5   4495548.812 5  23417539.992    23417547.617          10.000
        10.000
   2646546.688 6   2060336.277 6  21121045.188    21121051.504          17.750
        24.500
 99  3  9  1 35 45.0000000  0  6G 5G 6G10G17G24G30
   6994688.132 5   5437377.502 6  22826402.086    22826410.125          11.750
        13.250
  -2959592.044 7  -2306171.482 6  21108852.117    21108858.277          20.250
        22.750
   3703252.592 6   2885653.287 6  21848030.633    21848037.754          16.750
        17.750
  -4266714.805 5  -3324700.657 6  23054502.391    23054511.184          11.250
        14.250
   5812027.221 5   4528853.069 5  23425672.750    23425681.156           9.500
        10.250
   2676097.553 6   2083362.932 6  21126668.555    21126674.836          18.000
        24.500
 99  3  9  1 36  0.0000000  0  6G 5G 6G10G17G24G30
   7050160.314 5   5480602.564 6  22836958.297    22836966.547          11.750
        13.250
  -2976662.358 7  -2319473.001 6  21105603.609    21105609.934          20.250
        23.000
   3739606.264 6   2913980.835 6  21854948.563    21854955.703          17.000
        17.750
  -4293125.750 5  -3345280.537 6  23049476.305    23049485.488          11.250
        14.250
   5854774.493 5   4562162.655 5  23433807.344    23433817.270           9.250
        11.250
   2705789.454 6   2106499.488 6  21132318.734    21132325.000          18.000
        24.250
 99  3  9  1 36 15.0000000  0  6G 5G 6G10G17G24G30
   7105681.380 6   5523865.706 6  22847523.531    22847531.754          12.000
        13.000
  -2993669.459 7  -2332725.251 6  21102367.297    21102373.539          20.500
        23.000
   3776089.738 6   2942409.529 6  21861891.148    21861898.250          17.000
        18.000
  -4319482.789 5  -3365818.413 6  23044461.125    23044469.984          11.500
        14.500
   5897530.059 5   4595478.662 5  23441942.914    23441951.965           9.250
        10.500
   2735621.110 6   2129744.936 6  21137995.438    21138001.621          18.000
        24.250
 99  3  9  1 36 30.0000000  0  6G 5G 6G10G17G24G30
   7161251.525 5   5567167.102 6  22858098.164    22858106.391          11.500
        13.000
  -3010614.675 7  -2345929.287 6  21099142.742    21099148.898          20.250
        23.000
   3812700.372 6   2970937.307 6  21868858.016    21868865.148          17.000
        18.000
  -4345786.910 5  -3386315.061 6  23039455.422    23039464.301          11.500
        14.500
   5940295.114 5   4628802.086 5  23450081.883    23450089.656           9.500
        10.000
   2765591.828 6   2153098.749 6  21143698.766    21143705.059          18.000
        24.000
 99  3  9  1 36 45.0000000  0  6G 5G 6G10G17G24G30
   7216872.325 5   5610507.966 6  22868682.602    22868690.613          11.750
        13.000
  -3027500.196 7  -2359086.797 6  21095929.484    21095935.746          20.500
        23.000
   3849434.878 6   2999561.611 6  21875848.313    21875855.449          17.000
        18.000
  -4372036.903 5  -3406769.524 6  23034460.383    23034468.902          11.750
        14.500
   5983071.015 5   4662133.983 5  23458222.055    23458230.191           9.750
        10.500
   2795702.022 6   2176561.247 6  21149428.547    21149434.762          18.250
        24.000
 99  3  9  1 37  0.0000000  0  6G 5G 6G10G17G24G30
   7272543.677 5   5653888.221 6  22879276.266    22879284.566          11.750
        12.750
  -3044325.978 7  -2372197.765 6  21092727.594    21092733.840          20.500
        23.000
   3886292.416 6   3028281.780 6  21882862.086    21882869.109          17.000
        17.750
  -4398234.043 5  -3427182.816 6  23029475.109    23029484.016          11.750
        14.500
   6025855.979 5   4695472.932 5  23466362.883    23466371.320           9.250
        10.250
   2825951.377 6   2200132.179 6  21155184.859    21155191.133          18.500
        23.750
 99  3  9  1 37 15.0000000  0  6G 5G 6G10G17G24G30
   7328273.530 5   5697314.059 6  22889881.586    22889889.715          11.750
        13.000
  -3061088.222 7  -2385259.215 6  21089537.898    21089544.047          20.500
        23.000
   3923276.039 6   3057100.197 6  21889899.875    21889906.793          17.000
        17.750
  -4424373.946 5  -3447551.492 6  23024500.391    23024509.250          11.500
        14.500
   6068653.971 5   4728822.023 5  23474506.945    23474516.273           9.000
        10.750
   2856342.300 6   2223813.415 6  21160968.188    21160974.289          18.750
        23.750
 99  3  9  1 37 30.0000000  0  6G 5G 6G10G17G24G30
   7384062.927 5   5740786.295 6  22900497.906    22900506.082          11.500
        12.750
  -3077789.588 7  -2398273.229 6  21086359.438    21086365.727          20.500
        23.000
   3960380.237 6   3086012.573 6  21896960.445    21896967.496          17.000
        17.750
  -4450461.686 5  -3467879.536 6  23019536.211    23019545.141          11.750
        14.500
   6111459.988 5   4762177.357 5  23482652.711    23482662.379           9.000
        11.000
   2886869.024 6   2247600.480 6  21166777.156    21166783.191          18.750
        23.500
 99  3  9  1 37 45.0000000  0  6G 5G 6G10G17G24G30
   7439913.140 5   5784305.925 6  22911125.766    22911134.059          11.500
        12.750
  -3094427.699 7  -2411237.951 6  21083193.344    21083199.488          20.500
        23.000
   3997605.191 6   3115019.044 6  21904044.031    21904051.313          16.750
        17.750
  -4476497.993 5  -3488167.492 6  23014581.805    23014590.473          11.750
        14.750
   6154271.892 5   4795537.306 5  23490800.156    23490808.688           9.250
        10.500
   2917529.102 6   2271491.456 6  21172611.555    21172617.625          18.750
        23.500
 99  3  9  1 38  0.0000000  0  6G 5G 6G10G17G24G30
   7495831.638 5   5827878.755 6  22921766.609    22921774.996          11.250
        12.500
  -3110996.486 7  -2424148.659 6  21080040.422    21080046.699          20.750
        23.000
   4034953.634 6   3144121.732 6  21911151.211    21911158.293          17.000
        17.750
  -4502476.693 6  -3508410.563 6  23009638.336    23009647.059          12.250
        14.750
   6197094.077 5   4828905.254 5  23498948.344    23498957.023           9.000
        10.000
   2948327.018 6   2295489.840 6  21178472.188    21178478.262          19.250
        23.250
 99  3  9  1 38 15.0000000  0  6G 5G 6G10G17G24G30
   7551813.744 5   5871501.159 6  22932419.672    22932427.914          11.250
        12.500
  -3127500.904 7  -2437009.211 6  21076899.672    21076905.879          20.750
        23.000
   4072416.486 6   3173313.577 6  21918280.258    21918287.160          17.000
        17.750
  -4528401.793 6  -3528611.876 6  23004704.945    23004713.344          12.250
        14.750
   6239922.746 5   4862278.264 5  23507097.891    23507106.328           8.250
         9.500
   2979255.892 6   2319590.262 6  21184357.695    21184363.840          19.500
        23.250
 99  3  9  1 38 30.0000000  0  6G 5G 6G10G17G24G30
   7607860.380 5   5915173.839 6  22943084.961    22943093.203          11.250
        12.500
  -3143942.161 7  -2449820.549 6  21073771.094    21073777.238          20.500
        23.000
   4109991.740 6   3202593.007 6  21925430.602    21925437.578          17.000
        17.500
  -4554271.807 5  -3548770.250 6  22999781.500    22999790.543          11.750
        15.000
   6282755.863 5   4895654.730 5  23515248.227    23515258.098           8.000
        10.000
   3010314.672 6   2343791.915 6  21190268.086    21190274.125          19.250
        23.250
 99  3  9  1 38 45.0000000  0  6G 5G 6G10G17G24G30
   7663976.040 5   5958900.316 6  22953763.453    22953771.922          11.000
        12.500
  -3160316.905 7  -2462580.053 6  21070654.977    21070661.137          20.750
        23.000
   4147679.128 6   3231959.812 6  21932602.266    21932609.191          17.000
        17.500
  -4580083.233 5  -3568882.982 6  22994869.477    22994878.531          11.750
        15.000
   6325593.409 5   4929034.648 5  23523402.172    23523410.141           9.500
        10.250
   3041505.256 6   2368096.270 6  21196203.375    21196209.473          19.500
        23.250
 99  3  9  1 39  0.0000000  0  6G 5G 6G10G17G24G30
   7720158.708 5   6002678.997 6  22964454.750    22964463.078          11.000
        12.500
  -3176622.959 7  -2475286.034 6  21067552.023    21067558.188          20.500
        22.750
   4185478.483 6   3261413.865 6  21939795.125    21939802.219          17.000
        17.750
  -4605834.271 6  -3588948.658 6  22989969.766    22989978.039          12.250
        15.000
   6368435.144 5   4962417.839 5  23531553.469    23531561.805           9.000
         9.750
   3072828.445 6   2392503.954 6  21202164.023    21202170.102          19.500
        23.250
 99  3  9  1 39 15.0000000  0  6G 5G 6G10G17G24G30
   7776400.332 5   6046503.619 6  22975157.086    22975165.469          11.000
        12.500
  -3192863.320 7  -2487940.823 6  21064461.531    21064467.699          20.750
        23.000
   4223386.794 6   3290952.819 6  21947008.875    21947015.887          17.250
        17.500
  -4631528.899 6  -3608970.384 6  22985080.133    22985088.574          12.500
        15.000
   6411275.296 5   4995799.797 5  23539705.406    23539714.496           9.000
        10.250
   3104279.709 6   2417011.438 6  21208148.969    21208154.953          19.750
        23.250
 99  3  9  1 39 30.0000000  0  6G 5G 6G10G17G24G30
   7832698.951 5   6090372.660 6  22985870.242    22985878.695          11.000
        12.500
  -3209034.543 7  -2500541.740 6  21061384.234    21061390.391          21.000
        22.750
   4261406.628 6   3320578.671 6  21954243.789    21954250.762          17.500
        17.500
  -4657166.890 6  -3628947.969 6  22980200.984    22980209.914          12.250
        15.250
   6454115.306 5   5029181.641 5  23547857.625    23547866.863           9.250
        10.500
   3135861.061 6   2441620.293 6  21214158.750    21214164.813          19.750
        23.250
 99  3  9  1 39 45.0000000  0  6G 5G 6G10G17G24G30
   7889053.537 5   6134285.306 6  22996594.359    22996602.668          10.750
        12.500
  -3225132.972 7  -2513085.927 6  21058320.805    21058326.930          20.500
        22.750
   4299542.460 6   3350294.913 6  21961500.898    21961507.836          17.000
        17.500
  -4682747.165 6  -3648880.589 6  22975333.430    22975342.059          12.250
        15.250
   6496958.024 5   5062565.593 5  23556010.156    23556019.363           9.000
        10.250
   3167578.666 6   2466335.310 6  21220194.258    21220200.441          19.750
        23.250
 99  3  9  1 40  0.0000000  0  6G 5G 6G10G17G24G30
   7945458.378 5   6178237.109 6  23007327.727    23007336.074          11.000
        12.500
  -3241161.751 7  -2525575.848 6  21055270.547    21055276.684          20.750
        22.750
   4337792.331 6   3380100.016 6  21968779.609    21968786.492          17.250
        17.500
  -4708269.242 6  -3668767.851 6  22970476.461    22970485.465          12.250
        15.500
   6539803.180 5   5095951.446 5  23564163.648    23564172.316           8.750
        10.000
   3199431.762 7   2491155.914 6  21226255.828    21226261.934          20.000
        23.250
 99  3  9  1 40 15.0000000  0  6G 5G 6G10G17G24G30
   8001913.467 5   6222228.075 6  23018071.000    23018079.199          10.750
        12.500
  -3257123.001 7  -2538013.144 6  21052233.086    21052239.223          20.250
        22.750
   4376158.364 6   3409995.640 6  21976080.352    21976087.324          17.000
        17.500
  -4733733.344 6  -3688609.938 6  22965630.766    22965639.703          12.000
        15.500
   6582651.267 5   5129339.589 5  23572317.719    23572326.203           8.750
        10.000
   3231423.366 6   2516084.444 6  21232343.594    21232349.648          19.500
        23.250
 99  3  9  1 40 30.0000000  0  6G 5G 6G10G17G24G30
   8058413.236 5   6266253.856 6  23028822.328    23028830.805          10.750
        12.500
  -3273019.715 7  -2550400.159 6  21049208.195    21049214.301          20.500
        22.750
   4414640.883 6   3439982.028 6  21983403.359    21983410.328          17.250
        17.500
  -4759141.765 6  -3708408.646 6  22960795.984    22960804.391          12.250
        15.500
   6625500.523 5   5162728.627 5  23580470.250    23580481.148           8.250
        10.750
   3263551.955 6   2541119.717 6  21238457.547    21238463.594          19.750
        23.250
 99  3  9  1 40 45.0000000  0  6G 5G 6G10G17G24G30
   8114953.715 5   6310311.342 6  23039581.813    23039590.180          10.750
        12.500
  -3288853.293 7  -2562737.974 6  21046195.102    21046201.199          20.500
        22.500
   4453239.875 6   3470059.173 6  21990748.461    21990755.543          17.000
        17.250
  -4784496.521 6  -3728165.536 6  22955971.109    22955979.504          12.250
        15.500
   6668350.671 5   5196118.353 5  23588624.625    23588635.105           8.500
        10.750
   3295817.920 6   2566262.026 6  21244597.492    21244603.531          19.750
        23.250
 99  3  9  1 41  0.0000000  0  6G 5G 6G10G17G24G30
   8171542.454 5   6354406.452 6  23050350.266    23050358.664          10.750
        12.500
  -3304611.553 7  -2575017.093 6  21043196.445    21043202.484          20.500
        22.500
   4491965.939 6   3500235.338 6  21998117.602    21998124.637          16.750
        17.250
  -4809789.475 6  -3747874.271 6  22951157.867    22951166.527          12.250
        15.750
   6711213.667 5   5229518.095 5  23596782.688    23596790.086           9.500
         9.250
   3328230.649 6   2591518.708 6  21250765.398    21250771.504          19.500
        23.250
 99  3  9  1 41 15.0000000  0  6G 5G 6G10G17G24G30
   8228177.133 5   6398537.357 6  23061127.672    23061135.922          10.750
        12.500
  -3320295.007 7  -2587237.930 6  21040211.961    21040218.008          20.500
        22.250
   4530821.623 6   3530512.505 6  22005511.633    22005518.734          16.500
        17.000
  -4835023.694 5  -3767537.232 6  22946355.664    22946364.676          11.750
        16.000
   6754088.987 5   5262927.467 5  23604942.039    23604948.023          10.000
         8.500
   3360787.085 6   2616887.362 6  21256960.672    21256966.789          19.250
        23.250
 99  3  9  1 41 30.0000000  0  6G 5G 6G10G17G24G30
   8284855.588 5   6442702.375 6  23071913.055    23071921.652          10.500
        12.500
  -3335911.522 7  -2599406.606 6  21037240.219    21037246.242          20.250
        22.250
   4569803.380 6   3560887.913 6  22012929.484    22012936.539          16.500
        17.000
  -4860205.060 5  -3787159.012 6  22941563.836    22941572.426          11.750
        15.750
   6796972.339 5   5296343.099 5  23613101.898    23613108.813           9.750
         8.500
   3393481.727 6   2642363.718 6  21263182.234    21263188.250          19.000
        23.500
 99  3  9  1 41 45.0000000  0  6G 5G 6G10G17G24G30
   8341581.356 5   6486904.245 6  23082707.672    23082716.156          10.500
        12.500
  -3351462.436 7  -2611524.165 6  21034280.891    21034286.891          20.500
        22.250
   4608908.851 6   3591359.711 6  22020371.180    22020378.164          16.500
        17.000
  -4885332.766 6  -3806738.984 6  22936782.305    22936790.703          12.000
        15.750
   6839864.928 5   5329765.925 5  23621263.953    23621272.156           9.750
         9.250
   3426315.076 6   2667948.145 6  21269430.273    21269436.367          19.000
        23.250
 99  3  9  1 42  0.0000000  0  6G 5G 6G10G17G24G30
   8398358.014 5   6531145.784 6  23093511.992    23093520.445          10.250
        12.500
  -3366945.023 7  -2623588.477 6  21031334.531    21031340.504          20.250
        22.000
   4648138.304 6   3621928.130 6  22027836.328    22027843.238          16.250
        17.000
  -4910401.459 5  -3826272.962 6  22932011.891    22932020.500          11.750
        16.000
   6882766.707 5   5363195.884 5  23629426.984    23629436.996           9.000
        10.000
   3459288.488 6   2693641.729 6  21275704.789    21275710.816          18.500
        23.500
 99  3  9  1 42 15.0000000  0  6G 5G 6G10G17G24G30
   8455177.507 5   6575420.698 6  23104324.328    23104332.980          10.500
        12.500
  -3382368.216 7  -2635606.512 6  21028399.641    21028405.660          20.250
        22.250
   4687483.687 6   3652586.886 6  22035323.461    22035330.523          16.250
        17.000
  -4935419.991 6  -3845767.858 6  22927250.938    22927259.418          12.000
        16.000
   6925667.402 5   5396625.001 5  23637592.414    23637599.770          10.000
         9.500
   3492389.513 6   2719434.743 6  21282003.578    21282009.668          18.750
        23.250
 99  3  9  1 42 30.0000000  0  6G 5G 6G10G17G24G30
   8512046.168 5   6619733.922 6  23115146.102    23115154.691          10.250
        12.500
  -3397723.098 7  -2647571.320 6  21025477.633    21025483.609          20.000
        22.000
   4726949.872 6   3683339.766 6  22042833.492    22042840.578          16.250
        16.750
  -4960385.312 5  -3865221.304 6  22922499.953    22922508.559          11.750
        16.000
   6968573.006 5   5430057.979 5  23645756.633    23645763.879           9.750
         9.000
   3525619.785 6   2745328.468 6  21288327.195    21288333.270          18.500
        23.250
 99  3  9  1 42 45.0000000  0  6G 5G 6G10G17G24G30
   8568963.380 5   6664084.980 6  23125976.969    23125985.664          10.500
        12.500
  -3413007.521 7  -2659481.223 6  21022569.078    21022575.074          20.250
        22.000
   4766533.698 6   3714184.320 6  22050366.133    22050373.191          16.500
        16.750
  -4985297.339 5  -3884633.213 6  22917758.984    22917767.844          11.500
        16.000
   7011483.076 5   5463494.393 5  23653919.266    23653929.453           8.000
         9.000
   3558978.775 6   2771322.492 6  21294675.211    21294681.320          18.500
        23.500
 99  3  9  1 43  0.0000000  0  6G 5G 6G10G17G24G30
   8625936.185 5   6708479.356 6  23136818.719    23136827.359          10.250
        12.500
  -3428215.881 7  -2671331.855 6  21019674.930    21019680.930          20.250
        22.000
   4806237.741 6   3745122.545 6  22057921.695    22057928.555          16.500
        16.750
  -5010152.532 5  -3904000.826 6  22913029.563    22913038.434          11.500
        16.000
   7054399.318 5   5496935.621 5  23662087.305    23662095.984           8.250
         9.250
   3592470.280 6   2797419.774 6  21301048.445    21301054.520          18.250
        23.500
 99  3  9  1 43 15.0000000  0  6G 5G 6G10G17G24G30
   8682958.113 5   6752912.014 6  23147669.547    23147678.199          10.250
        12.500
  -3443355.845 7  -2683129.197 6  21016794.063    21016799.977          20.250
        22.000
   4846054.841 6   3776148.868 6  22065498.680    22065505.504          16.500
        16.750
  -5034957.095 5  -3923328.996 6  22908309.594    22908318.082          11.750
        16.000
   7097311.320 5   5530373.550 5  23670254.711    23670263.188           9.500
        10.000
   3626084.731 6   2823612.865 6  21307445.055    21307451.066          18.250
        23.500
 99  3  9  1 43 30.0000000  0  6G 5G 6G10G17G24G30
   8740029.004 5   6797382.821 6  23158530.086    23158538.625          10.250
        12.500
  -3458432.462 7  -2694877.178 6  21013924.906    21013930.879          20.250
        22.000
   4885983.670 6   3807262.254 6  22073096.594    22073103.543          16.500
        16.750
  -5059709.064 5  -3942616.183 6  22903599.266    22903607.613          11.750
        16.000
   7140218.148 5   5563807.449 5  23678420.102    23678429.254          10.250
        10.750
   3659822.941 6   2849902.385 6  21313865.211    21313871.207          18.250
        23.500
 99  3  9  1 43 45.0000000  0  6G 5G 6G10G17G24G30
   8797161.158 5   6841901.372 6  23169402.000    23169410.434          10.250
        12.750
  -3473432.344 7  -2706565.361 6  21011070.578    21011076.527          20.250
        22.000
   4926035.400 6   3838471.408 6  22080718.070    22080725.266          16.500
        16.750
  -5084392.963 5  -3961850.328 6  22898901.766    22898910.211          11.500
        15.750
   7183133.174 5   5597247.727 5  23686585.031    23686594.695           9.250
        10.000
   3693697.093 6   2876297.845 6  21320311.250    21320317.285          18.000
        23.500
 99  3  9  1 44  0.0000000  0  6G 5G 6G10G17G24G30
   8854340.965 5   6886457.049 6  23180283.008    23180291.480          10.500
        12.500
  -3488362.307 7  -2718199.067 6  21008229.508    21008235.453          20.250
        22.000
   4966199.658 6   3869768.239 6  22088361.383    22088368.332          16.500
        17.000
  -5109020.144 5  -3981040.273 6  22894215.461    22894223.832          11.500
        16.000
   7226047.289 5   5630687.303 5  23694751.820    23694758.379           9.750
         8.250
   3727695.764 6   2902790.319 6  21326780.930    21326786.984          18.000
        23.500
 99  3  9  1 44 15.0000000  0  6G 5G 6G10G17G24G30
   8911563.579 5   6931046.084 6  23191171.938    23191180.383          10.500
        12.750
  -3503224.640 7  -2729780.070 6  21005401.188    21005407.109          20.250
        22.000
   5006479.339 6   3901155.017 6  22096026.211    22096033.383          16.500
        17.000
  -5133592.585 5  -4000187.569 6  22889539.180    22889547.918          11.500
        16.000
   7268959.699 5   5664125.594 5  23702918.102    23702924.863          10.000
         8.000
   3761816.730 6   2929378.094 6  21333273.992    21333280.047          17.750
        23.500
 99  3  9  1 44 30.0000000  0  6G 5G 6G10G17G24G30
   8968825.100 5   6975665.430 6  23202068.578    23202076.898          10.500
        12.500
  -3518023.803 7  -2741311.854 6  21002585.047    21002590.953          20.250
        22.000
   5046870.282 6   3932628.490 6  22103712.578    22103719.555          16.500
        17.000
  -5158115.510 5  -4019296.277 6  22884872.523    22884881.551          11.250
        16.250
   7311869.425 5   5697561.755 5  23711083.109    23711090.379           9.500
         8.250
   3796058.646 6   2956060.115 6  21339790.031    21339796.059          18.000
        23.750
 99  3  9  1 44 45.0000000  0  6G 5G 6G10G17G24G30
   9026132.317 5   7020320.392 6  23212973.953    23212982.258          10.500
        12.750
  -3532752.075 7  -2752788.397 6  20999782.305    20999788.145          20.250
        22.000
   5087378.002 6   3964192.953 6  22111420.594    22111427.730          16.500
        17.000
  -5182579.947 5  -4038359.413 6  22880217.992    22880225.996          11.750
        16.250
   7354784.352 5   5731001.974 5  23719249.555    23719257.297           9.250
         8.250
   3830432.901 6   2982845.257 6  21346331.125    21346337.117          18.000
        23.750
 99  3  9  1 45  0.0000000  0  6G 5G 6G10G17G24G30
   9083481.183 5   7065007.804 6  23223887.117    23223895.355          10.500
        12.500
  -3547414.716 7  -2764213.803 6  20996992.016    20996997.902          20.250
        22.000
   5127998.922 6   3995845.629 6  22119150.633    22119157.699          16.500
        17.250
  -5206988.216 5  -4057378.785 6  22875572.805    22875580.898          11.500
        16.000
   7397700.944 5   5764443.489 5  23727415.875    23727424.723           9.000
         9.000
   3864936.605 6   3009731.271 6  21352897.016    21352902.957          18.000
        23.750
 99  3  9  1 45 15.0000000  0  6G 5G 6G10G17G24G30
   9140870.861 5   7109727.014 6  23234807.820    23234816.352          10.500
        12.500
  -3562011.956 7  -2775588.245 6  20994214.398    20994220.266          20.250
        22.000
   5168734.804 6   4027587.885 6  22126902.547    22126909.449          16.250
        17.000
  -5231340.685 5  -4076354.679 6  22870937.664    22870946.727          11.000
        16.000
   7440622.064 5   5797888.520 5  23735583.789    23735591.832           9.250
         8.750
   3899568.032 6   3036716.806 6  21359487.023    21359493.090          17.750
        24.000
 99  3  9  1 45 30.0000000  0  6G 5G 6G10G17G24G30
   9198294.351 5   7154472.585 6  23245735.352    23245743.746          10.500
        12.500
  -3576550.858 7  -2786917.224 6  20991447.648    20991453.422          20.000
        22.000
   5209582.696 6   4059417.424 6  22134675.695    22134682.633          16.500
        17.500
  -5255642.686 5  -4095291.231 6  22866313.914    22866322.391          11.250
        16.000
   7483546.333 5   5831336.028 5  23743751.063    23743760.027           8.750
         9.000
   3934324.083 6   3063799.459 6  21366101.063    21366107.031          18.000
        24.000
 99  3  9  1 45 45.0000000  0  6G 5G 6G10G17G24G30
   9255759.755 5   7199250.806 6  23256670.703    23256679.004          10.500
        12.500
  -3591022.652 7  -2798193.914 6  20988693.766    20988699.574          20.250
        22.250
   5250547.554 6   4091338.099 6  22142471.242    22142477.926          16.500
        17.500
  -5279890.326 5  -4114185.429 6  22861699.945    22861707.992          11.250
        16.000
   7526482.239 5   5864792.566 5  23751922.281    23751931.383           9.000
         9.500
   3969213.736 6   3090986.210 6  21372740.297    21372746.246          18.000
        24.250
 99  3  9  1 46  0.0000000  0  6G 5G 6G10G17G24G30
   9313270.456 5   7244064.324 6  23267614.727    23267622.824          10.500
        12.500
  -3605419.665 7  -2809412.339 6  20985954.109    20985959.887          20.250
        22.250
   5291630.964 6   4123351.151 6  22150288.750    22150295.988          16.500
        17.500
  -5304082.672 5  -4133036.543 6  22857095.789    22857104.148          11.250
        16.000
   7569431.076 5   5898259.193 5  23760095.703    23760103.691           9.750
         9.250
   4004241.409 6   3118280.509 6  21379405.773    21379411.813          18.000
        24.500
 99  3  9  1 46 15.0000000  0  6G 5G 6G10G17G24G30
   9370822.121 5   7288909.760 6  23278566.313    23278574.699          10.500
        12.500
  -3619747.017 7  -2820576.478 6  20983227.602    20983233.422          20.250
        22.250
   5332827.509 6   4155452.364 6  22158128.391    22158135.422          16.250
        17.500
  -5328226.395 5  -4151849.769 6  22852501.453    22852510.027          11.250
        16.250
   7612385.820 5   5931730.444 5  23768269.852    23768276.617           9.500
         8.500
   4039405.399 6   3145681.030 6  21386097.281    21386103.352          18.000
        24.500
 99  3  9  1 46 30.0000000  0  6G 5G 6G10G17G24G30
   9428416.996 5   7333788.870 6  23289526.320    23289534.441          10.750
        12.500
  -3634004.627 7  -2831686.267 6  20980514.406    20980520.203          20.250
        22.250
   5374134.439 6   4187639.590 6  22165988.695    22165995.789          16.250
        17.750
  -5352321.344 5  -4170624.986 6  22847916.195    22847925.027          11.250
        16.250
   7655344.863 5   5965205.056 5  23776444.703    23776452.480           9.250
         9.000
   4074705.087 6   3173187.296 6  21392814.617    21392820.648          18.250
        24.500
 99  3  9  1 46 45.0000000  0  6G 5G 6G10G17G24G30
   9486059.711 5   7378705.256 6  23300495.328    23300503.609          10.500
        12.500
  -3648187.672 7  -2842737.962 6  20977815.430    20977821.238          20.250
        22.500
   5415549.699 6   4219911.228 6  22173869.641    22173876.984          16.250
        17.750
  -5376365.539 5  -4189360.656 6  22843340.758    22843349.063          11.250
        16.000
   7698311.663 5   5998685.684 5  23784620.039    23784630.109           8.750
        10.000
   4110140.332 6   3200799.187 6  21399557.547    21399563.734          18.000
        24.750
 99  3  9  1 47  0.0000000  0  6G 5G 6G10G17G24G30
   9543749.435 5   7423658.267 6  23311473.227    23311481.652          10.500
        12.500
  -3662295.718 7  -2853731.215 6  20975130.883    20975136.656          20.500
        22.500
   5457074.032 6   4252267.856 6  22181771.547    22181778.793          16.000
        17.750
  -5400358.185 5  -4208056.167 6  22838775.172    22838783.070          11.250
        15.750
   7741286.441 5   6032172.516 5  23792798.352    23792807.305           9.000
        10.000
   4145708.793 6   3228514.874 6  21406326.016    21406332.250          18.250
        24.750
 99  3  9  1 47 15.0000000  0  6G 5G 6G10G17G24G30
   9601481.263 5   7468644.097 6  23322459.484    23322467.676          10.500
        12.500
  -3676332.100 7  -2864668.623 6  20972459.656    20972465.344          20.500
        22.500
   5498702.558 6   4284705.669 6  22189693.000    22189700.297          16.000
        17.750
  -5424303.695 5  -4226714.939 6  22834219.117    22834226.684          11.500
        16.000
   7784264.176 5   6065661.668 5  23800976.719    23800984.652           9.250
         9.250
   4181404.529 6   3256329.743 6  21413118.703    21413124.945          18.250
        24.750
 99  3  9  1 47 30.0000000  0  6G 5G 6G10G17G24G30
   9659260.290 5   7513666.708 6  23333454.305    23333462.449          10.500
        12.250
  -3690290.835 7  -2875545.528 6  20969803.461    20969809.141          20.500
        22.500
   5540438.869 6   4317227.481 6  22197635.484    22197642.324          16.000
        17.500
  -5448195.406 5  -4245331.787 6  22829671.844    22829680.523          11.250
        16.250
   7827247.953 5   6099155.548 5  23809156.664    23809163.996           9.250
         9.000
   4217234.060 6   3284248.872 6  21419936.906    21419943.102          18.250
        24.750
 99  3  9  1 47 45.0000000  0  6G 5G 6G10G17G24G30
   9717088.704 5   7558727.794 6  23344458.906    23344467.016          10.750
        12.250
  -3704169.357 7  -2886359.934 6  20967162.602    20967168.277          20.500
        22.750
   5582280.941 6   4349831.699 6  22205597.648    22205604.668          16.000
        17.500
  -5472031.573 5  -4263905.358 6  22825135.172    22825144.262          11.000
        16.250
   7870236.599 5   6132653.211 5  23817336.984    23817345.102           9.250
         9.000
   4253197.763 6   3312272.547 6  21426780.641    21426786.781          18.500
        24.750
 99  3  9  1 48  0.0000000  0  6G 5G 6G10G17G24G30
   9774962.558 5   7603824.272 6  23355471.961    23355480.027          10.500
        12.250
  -3717967.349 7  -2897111.584 6  20964536.875    20964542.535          20.500
        22.750
   5624224.066 6   4382514.663 6  22213579.086    22213586.188          15.750
        17.500
  -5495813.683 5  -4282436.803 6  22820610.148    22820618.250          11.250
        16.000
   7913224.247 5   6166150.082 5  23825516.500    23825525.102           8.750
         9.250
   4289290.835 6   3340397.031 6  21433648.727    21433654.867          18.250
        24.750
 99  3  9  1 48 15.0000000  0  6G 5G 6G10G17G24G30
   9832878.714 5   7648953.733 6  23366492.984    23366501.156          10.500
        12.250
  -3731686.764 7  -2907802.008 6  20961926.133    20961931.770          20.500
        22.750
   5666268.939 6   4415276.905 6  22221579.789    22221587.148          15.500
        17.500
  -5519539.487 5  -4300924.378 6  22816095.398    22816103.711          11.500
        16.250
   7956210.591 5   6199645.954 5  23833697.328    23833705.875           9.250
         9.750
   4325509.210 6   3368619.152 6  21440540.961    21440547.129          18.500
        24.750
 99  3  9  1 48 30.0000000  0  6G 5G 6G10G17G24G30
   9890836.381 5   7694115.538 6  23377521.875    23377530.270          10.500
        12.250
  -3745327.460 7  -2918431.094 6  20959330.305    20959336.105          20.750
        22.750
   5708417.340 6   4448119.825 6  22229600.313    22229607.719          15.500
        17.500
  -5543206.612 5  -4319366.233 6  22811591.805    22811599.898          11.500
        16.250
   7999199.476 5   6233143.804 5  23841877.609    23841886.469           8.750
        10.000
   4361849.366 6   3396936.163 6  21447456.148    21447462.453          18.500
        24.750
 99  3  9  1 48 45.0000000  0  6G 5G 6G10G17G24G30
   9948833.153 5   7739307.807 6  23388558.375    23388566.617          10.750
        12.000
  -3758889.694 7  -2928999.036 6  20956749.383    20956755.168          21.000
        23.000
   5750667.720 6   4481042.206 6  22237640.570    22237647.738          15.500
        17.500
  -5566814.439 5  -4337761.877 6  22807099.492    22807106.848          11.750
        16.000
   8042192.480 5   6266644.844 5  23850058.547    23850067.883           8.250
        10.000
   4398310.111 6   3425347.144 6  21454394.492    21454400.645          18.750
        24.750
 99  3  9  1 49  0.0000000  0  6G 5G 6G10G17G24G30
  10006867.231 5   7784529.151 5  23399601.859    23399610.148          10.500
        11.750
  -3772374.496 7  -2939506.642 6  20954183.484    20954189.078          20.750
        23.000
   5793021.667 6   4514045.290 6  22245700.039    22245707.223          15.500
        17.250
  -5590362.474 5  -4356110.931 6  22802617.734    22802626.164          11.500
        16.250
   8085187.502 5   6300147.472 5  23858241.250    23858249.301           9.000
         9.500
   4434892.640 6   3453853.020 6  21461355.922    21461362.070          18.750
        24.750
 99  3  9  1 49 15.0000000  0  6G 5G 6G10G17G24G30
  10064935.911 5   7829777.458 5  23410651.875    23410660.242          10.500
        11.750
  -3785785.311 7  -2949956.598 6  20951631.406    20951637.086          20.750
        22.750
   5835477.400 6   4547127.688 6  22253779.000    22253786.371          15.250
        17.250
  -5613852.757 5  -4374414.972 6  22798147.555    22798156.668          11.500
        16.750
   8128179.226 5   6333647.537 5  23866421.617    23866429.730           8.750
         9.000
   4471594.126 6   3482451.589 6  21468339.969    21468346.117          18.750
        24.500
 99  3  9  1 49 30.0000000  0  6G 5G 6G10G17G24G30
  10123046.493 5   7875058.415 5  23421710.203    23421718.250          10.500
        11.750
  -3799117.273 7  -2960345.112 6  20949094.359    20949100.047          21.000
        23.000
   5878042.695 6   4580295.454 6  22261878.906    22261886.254          15.250
        17.000
  -5637280.344 5  -4392670.172 6  22793690.047    22793698.254          11.500
        16.750
   8171171.811 5   6367148.271 5  23874602.805    23874610.035           8.500
         8.500
   4508421.773 6   3511148.461 6  21475348.070    21475354.188          19.000
        24.250
 99  3  9  1 49 45.0000000  0  6G 5G 6G10G17G24G30
  10181197.074 5   7920370.539 5  23432775.867    23432784.180          10.250
        11.750
  -3812374.059 7  -2970675.048 6  20946571.563    20946577.219          21.000
        23.000
   5920715.913 6   4613547.318 6  22269999.391    22270006.859          15.250
        17.250
  -5660649.083 5  -4410879.509 6  22789242.648    22789250.648          11.500
        16.250
   8214162.870 5   6400647.824 5  23882782.969    23882791.289           8.000
         8.750
   4545372.056 6   3539940.901 6  21482379.430    21482385.559          18.750
        24.250
 99  3  9  1 50  0.0000000  0  6G 5G 6G10G17G24G30
  10239387.819 5   7965713.954 5  23443848.977    23443857.332          10.500
        11.750
  -3825555.036 7  -2980945.911 6  20944063.430    20944069.074          21.250
        23.000
   5963499.982 6   4646885.564 6  22278141.125    22278148.117          15.500
        17.000
  -5683958.279 5  -4429042.459 6  22784807.367    22784815.285          11.750
        16.500
   8257153.670 5   6434147.154 5  23890964.078    23890973.082           8.500
         9.250
   4582445.295 6   3568829.148 6  21489434.266    21489440.414          19.250
        24.000
 99  3  9  1 50 15.0000000  0  6G 5G 6G10G17G24G30
  10297610.099 5   8011081.957 5  23454928.297    23454936.727          10.000
        11.750
  -3838667.684 7  -2991163.529 6  20941568.156    20941573.855          21.250
        23.000
   6006387.751 6   4680304.613 6  22286302.469    22286309.535          15.500
        17.000
  -5707217.776 6  -4447166.673 6  22780381.164    22780388.965          12.000
        16.500
   8300136.713 5   6467640.455 5  23899144.602    23899153.027           9.000
         9.750
   4619634.118 6   3597807.459 6  21496511.102    21496517.152          19.000
        23.750
 99  3  9  1 50 30.0010000  0  6G 5G 6G10G17G24G30
  10355874.906 5   8056483.084 5  23466015.856    23466024.286          10.000
        11.500
  -3851709.719 7  -3001326.125 6  20939086.333    20939091.966          21.250
        23.000
   6049387.413 6   4713810.854 6  22294484.958    22294491.942          15.500
        16.750
  -5730424.921 5  -4465250.100 6  22775964.560    22775972.517          11.750
        16.500
   8343121.213 5   6501134.873 5  23907322.919    23907332.165           8.000
         9.250
   4656947.831 6   3626883.086 6  21503611.708    21503617.704          19.250
        23.500
 99  3  9  1 50 45.0010000  0  6G 5G 6G10G17G24G30
  10414173.884 5   8101910.835 5  23477109.614    23477118.044          10.000
        11.500
  -3864680.337 7  -3011433.070 6  20936618.083    20936623.763          21.250
        23.000
   6092491.758 6   4747398.664 6  22302687.396    22302694.509          15.500
        16.750
  -5753579.017 6  -4483292.197 6  22771559.247    22771566.962          12.250
        16.750
   8386099.351 5   6534624.344 5  23915502.099    23915509.845           8.250
         8.750
   4694383.908 6   3656054.067 6  21510735.458    21510741.517          19.250
        23.500
 99  3  9  1 51  0.0010000  0  6G 5G 6G10G17G24G30
  10472517.451 5   8147373.337 5  23488212.349    23488220.563          10.000
        11.250
  -3877574.582 7  -3021480.504 6  20934164.435    20934170.048          21.250
        23.000
   6135708.548 6   4781074.092 6  22310911.224    22310918.372          15.750
        16.750
  -5776677.261 6  -4501290.758 6  22767162.927    22767171.829          12.250
        17.000
   8429075.928 5   6568112.613 5  23923681.005    23923688.595           9.000
         9.250
   4731950.473 6   3685326.724 6  21517884.122    21517890.106          19.000
        23.250
 99  3  9  1 51 15.0010000  0  6G 5G 6G10G17G24G30
  10530902.055 5   8192867.818 5  23499322.521    23499330.743           9.750
        11.250
  -3890397.220 7  -3031472.146 6  20931724.341    20931729.888          21.250
        23.000
   6179035.252 6   4814835.166 6  22319156.192    22319163.067          15.500
        16.500
  -5799722.746 6  -4519248.212 6  22762777.255    22762785.735          12.250
        17.000
   8472045.668 5   6601595.535 5  23931856.536    23931865.653           8.000
         9.250
   4769643.349 6   3714697.802 6  21525056.810    21525062.798          18.750
        23.000
 99  3  9  1 51 30.0010000  0  6G 5G 6G10G17G24G30
  10589328.951 5   8238395.255 5  23510440.560    23510448.966           9.750
        11.250
  -3903143.476 7  -3041404.266 6  20929298.747    20929304.388          21.250
        23.000
   6222474.277 6   4848683.761 6  22327421.802    22327429.157          15.250
        16.500
  -5822711.950 6  -4537161.809 6  22758402.966    22758410.751          12.500
        16.750
   8515013.266 5   6635076.794 5  23940033.450    23940041.337           8.250
         9.000
   4807466.496 6   3744170.393 6  21532254.419    21532260.384          18.750
        23.000
 99  3  9  1 51 45.0010000  0  6G 5G 6G10G17G24G30
  10647794.928 5   8283953.149 5  23521566.271    23521574.384           9.500
        11.000
  -3915812.863 7  -3051276.493 6  20926887.856    20926893.470          21.250
        23.000
   6266023.728 6   4882618.414 6  22335709.294    22335716.192          15.250
        16.250
  -5845646.348 6  -4555032.714 6  22754038.271    22754046.665          12.500
        17.000
   8557979.320 5   6668556.864 5  23948209.856    23948217.696           8.000
         9.000
   4845418.485 6   3773743.373 6  21539476.442    21539482.403          18.500
        22.750
 99  3  9  1 52  0.0010000  0  6G 5G 6G10G17G24G30
  10706299.485 5   8329541.086 5  23532699.521    23532707.587           9.500
        11.000
  -3928402.992 7  -3061086.955 6  20924491.981    20924497.614          21.250
        23.000
   6309681.430 6   4916637.406 6  22344017.185    22344024.349          15.250
        16.500
  -5868526.350 6  -4572861.215 6  22749685.349    22749692.579          12.750
        17.000
   8600946.691 5   6702037.943 5  23956385.763    23956394.813           7.750
         9.500
   4883497.567 6   3803415.397 6  21546722.528    21546728.423          18.500
        22.750
 99  3  9  1 52 15.0010000  0  6G 5G 6G10G17G24G30
  10764849.974 5   8375164.828 5  23543841.091    23543849.634           9.250
        11.000
  -3940903.913 7  -3070827.900 6  20922113.130    20922118.747          21.500
        23.000
   6353455.097 6   4950746.766 6  22352347.263    22352353.981          15.750
        16.500
  -5891344.404 6  -4590641.469 6  22745342.630    22745350.325          13.000
        17.000
   8643924.649 5   6735527.275 5  23964564.817    23964573.185           8.000
         9.500
   4921711.769 6   3833192.707 6  21553994.481    21554000.313          18.500
        22.500
 99  3  9  1 52 30.0010000  0  6G 5G 6G10G17G24G30
  10823435.707 5   8420816.030 5  23554989.724    23554998.177           9.250
        10.750
  -3953325.717 7  -3080507.197 6  20919749.286    20919754.849          21.500
        22.750
   6397335.120 6   4984939.000 6  22360697.177    22360704.536          15.750
        16.500
  -5914108.383 6  -4608379.570 6  22741010.044    22741018.888          12.750
        17.250
   8686906.482 4   6769019.629 5  23972742.599    23972752.587           7.250
         9.250
   4960049.990 6   3863066.646 6  21561289.958    21561295.829          18.500
        22.250
 99  3  9  1 52 45.0010000  0  6G 5G 6G10G17G24G30
  10882056.519 5   8466494.563 5  23566144.849    23566153.243           9.250
        10.750
  -3965668.921 7  -3090125.257 6  20917400.411    20917405.993          21.500
        22.750
   6441323.255 6   5019215.473 6  22369067.692    22369074.759          15.750
        16.250
  -5936814.156 6  -4626072.319 6  22736689.833    22736697.946          13.250
        17.500
   8729893.528 4   6802516.029 5  23980922.919    23980932.548           7.000
         9.000
   4998511.978 6   3893037.038 6  21568609.083    21568614.896          18.500
        22.250
 99  3  9  1 53  0.0010000  0  6G 5G 6G10G17G24G30
  10940712.321 5   8512200.363 5  23577306.802    23577315.095           9.000
        10.750
  -3977930.483 7  -3099679.691 6  20915067.052    20915072.646          21.500
        22.750
   6485420.903 6   5053577.279 6  22377459.435    22377466.399          15.750
        16.250
  -5959460.169 6  -4643718.503 6  22732380.083    22732388.169          13.250
        17.000
   8772887.425 5   6836017.786 5  23989105.622    23989112.892           7.750
         8.250
   5037095.070 6   3923101.794 6  21575951.224    21575957.063          18.250
        22.000
 99  3  9  1 53 15.0010000  0  6G 5G 6G10G17G24G30
  10999395.571 5   8557927.560 5  23588473.567    23588482.200           9.000
        10.500
  -3990117.724 7  -3109176.215 6  20912747.927    20912753.481          21.250
        22.750
   6529619.873 6   5088018.047 6  22385870.263    22385877.169          15.750
        16.250
  -5982052.191 6  -4661322.619 6  22728081.544    22728089.024          13.250
        17.250
   8815882.989 5   6869520.860 5  23997286.544    23997294.728           7.500
         8.500
   5075789.873 6   3953253.593 6  21583314.442    21583320.356          18.250
        22.000
 99  3  9  1 53 30.0010000  0  6G 5G 6G10G17G24G30
  11058108.818 5   8603678.120 5  23599646.536    23599654.903           8.750
        10.500
  -4002226.668 7  -3118611.731 6  20910443.685    20910449.235          21.250
        22.750
   6573920.943 6   5122538.367 6  22394300.450    22394307.220          15.500
        16.250
  -6004587.911 6  -4678882.866 6  22723793.099    22723800.813          13.500
        17.500
   8858887.194 4   6903030.634 5  24005470.005    24005478.935           7.250
         9.000
   5114599.330 6   3983494.738 6  21590699.692    21590705.481          18.000
        21.750
 99  3  9  1 53 45.0010000  0  6G 5G 6G10G17G24G30
  11116856.869 5   8649455.796 5  23610825.692    23610834.505           8.750
        10.500
  -4014252.154 7  -3127982.214 6  20908155.317    20908160.845          21.250
        22.750
   6618328.062 6   5157141.320 6  22402750.614    22402758.028          15.500
        16.250
  -6027064.779 6  -4696397.255 6  22719515.310    22719523.263          13.250
        17.500
   8901907.171 4   6936552.700 5  24013656.513    24013665.970           7.250
         9.250
   5153527.203 6   4013828.150 6  21598107.325    21598113.228          18.000
        21.750
 99  3  9  1 54  0.0010000  0  6G 5G 6G10G17G24G30
  11175634.450 5   8695256.496 5  23622010.989    23622019.204           8.750
        10.250
  -4026202.847 7  -3137294.407 6  20905881.083    20905886.700          21.250
        22.750
   6662832.992 6   5191820.493 6  22411219.755    22411226.497          15.750
        16.250
  -6049490.396 6  -4713871.709 6  22715248.271    22715255.806          13.500
        17.500
   8944936.763 4   6970082.264 5  24021843.646    24021853.134           6.500
         8.500
   5192565.359 6   4044247.503 6  21605536.114    21605541.927          18.000
        21.750
 99  3  9  1 54 15.0010000  0  6G 5G 6G10G17G24G30
  11234443.257 5   8741081.518 5  23633201.614    23633210.095           8.500
        10.000
  -4038078.601 7  -3146548.221 6  20903621.099    20903626.665          21.500
        22.750
   6707438.611 6   5226578.125 6  22419707.856    22419715.130          15.500
        16.250
  -6071859.306 6  -4731301.975 6  22710991.310    22710999.536          13.750
        17.500
   8987977.065 5   7003620.187 5  24030035.466    24030043.005           7.500
         8.000
   5231718.122 6   4074756.157 6  21612986.692    21612992.618          17.750
        21.750
 99  3  9  1 54 30.0010000  0  6G 5G 6G10G17G24G30
  11293280.373 5   8786928.607 5  23644398.263    23644406.731           8.250
        10.000
  -4049881.969 7  -3155745.619 6  20901374.997    20901380.638          21.250
        22.750
   6752143.369 6   5261413.008 6  22428215.208    22428221.802          15.250
        16.000
  -6094170.873 6  -4748687.554 6  22706745.731    22706753.294          13.750
        17.500
   9031025.777 5   7037164.668 5  24038227.739    24038235.458           7.500
         8.500
   5270984.050 6   4105352.992 6  21620458.833    21620464.571          17.750
        21.750
 99  3  9  1 54 45.0010000  0  6G 5G 6G10G17G24G30
  11352150.390 5   8832801.326 5  23655600.677    23655609.149           8.250
        10.000
  -4061610.487 7  -3164884.699 6  20899143.067    20899148.665          21.250
        22.750
   6796950.278 6   5296327.486 6  22436741.161    22436748.396          15.250
        16.000
  -6116419.936 6  -4766024.436 6  22702511.708    22702519.118          13.750
        17.250
   9074083.561 4   7070716.201 5  24046419.208    24046429.829           6.500
         9.250
   5310367.949 6   4136041.747 6  21627953.200    21627959.024          17.750
        21.750
 99  3  9  1 55  0.0010000  0  6G 5G 6G10G17G24G30
  11411051.275 5   8878698.103 5  23666809.278    23666817.813           8.250
         9.750
  -4073263.248 7  -3173964.744 6  20896925.724    20896931.325          21.250
        22.750
   6841854.932 6   5331318.138 6  22445286.364    22445293.435          15.500
        16.000
  -6138611.081 6  -4783316.176 6  22698288.396    22698296.724          13.500
        17.750
   9117145.891 4   7104271.264 5  24054615.005    24054623.610           7.000
         8.750
   5349869.340 6   4166822.060 6  21635470.099    21635476.044          17.500
        21.750
 99  3  9  1 55 15.0010000  0  6G 5G 6G10G17G24G30
  11469988.002 5   8924622.808 5  23678024.364    23678033.060           8.250
        10.000
  -4084836.084 7  -3182982.512 6  20894723.427    20894728.958          21.250
        22.750
   6886857.533 6   5366385.106 6  22453850.325    22453857.087          15.500
        16.000
  -6160743.258 6  -4800561.978 6  22694077.185    22694084.993          13.750
        17.750
   9160213.641 5   7137830.591 5  24062811.614    24062818.028           7.750
         8.000
   5389493.834 6   4197698.294 6  21643010.388    21643016.173          17.500
        22.000
 99  3  9  1 55 30.0010000  0  6G 5G 6G10G17G24G30
  11528959.302 5   8970574.457 5  23689245.825    23689255.017           8.000
         9.750
  -4096331.428 7  -3191939.889 6  20892535.981    20892541.489          21.250
        22.750
   6931954.918 6   5401525.933 6  22462432.075    22462438.981          15.500
        15.750
  -6182819.084 6  -4817763.866 6  22689876.208    22689883.888          13.750
        17.750
   9203283.260 4   7171391.372 5  24071006.888    24071014.657           7.250
         9.000
   5429241.437 6   4228670.465 6  21650574.052    21650579.876          17.750
        21.750
 99  3  9  1 55 45.0010000  0  6G 5G 6G10G17G24G30
  11587966.422 5   9016554.002 5  23700474.849    23700483.603           8.000
         9.750
  -4107747.991 7  -3200835.885 6  20890363.356    20890368.931          21.250
        22.750
   6977147.916 6   5436741.263 6  22471031.872    22471038.524          15.500
        15.750
  -6204840.394 6  -4834923.279 6  22685685.739    22685693.497          14.000
        17.750
   9246351.631 4   7204951.130 5  24079202.130    24079211.794           7.250
        10.000
   5469113.743 6   4259739.797 6  21658161.552    21658167.310          17.750
        22.000
 99  3  9  1 56  0.0010000  0  6G 5G 6G10G17G24G30
  11647006.705 5   9062559.398 5  23711709.599    23711718.462           8.000
         9.750
  -4119088.750 7  -3209672.819 6  20888205.208    20888210.802          21.250
        22.500
   7022434.232 6   5472029.316 6  22479649.450    22479656.317          15.500
        15.750
  -6226807.825 6  -4852040.702 6  22681505.450    22681513.095          13.750
        17.750
   9289412.124 4   7238504.766 5  24087396.364    24087406.052           7.250
         9.750
   5509108.870 6   4290904.837 6  21665772.302    21665778.009          17.750
        22.000
 99  3  9  1 56 15.0010000  0  6G 5G 6G10G17G24G30
  11706072.643 5   9108584.787 5  23722949.981    23722958.501           8.000
         9.500
  -4130359.544 7  -3218455.229 6  20886060.442    20886065.946          21.000
        22.500
   7067808.257 6   5507385.701 6  22488284.138    22488291.095          15.250
        15.750
  -6248725.868 6  -4869119.647 6  22677333.888    22677342.005          13.250
        17.750
   9332456.248 5   7272045.660 5  24095588.294    24095595.356           7.750
         8.750
   5549219.684 6   4322160.023 6  21673405.185    21673410.899          17.500
        22.000
 99  3  9  1 56 30.0010000  0  6G 5G 6G10G17G24G30
  11765169.158 5   9154634.003 5  23734194.911    23734204.341           7.750
         9.500
  -4141552.999 7  -3227177.372 6  20883930.403    20883935.907          21.000
        22.500
   7113276.633 6   5542815.608 6  22496936.333    22496943.286          15.250
        15.750
  -6270589.618 6  -4886156.278 6  22673173.856    22673181.575          13.500
        17.750
   9375489.802 5   7305578.335 5  24103777.974    24103784.165           8.250
         8.250
   5589451.071 6   4353509.158 6  21681060.966    21681066.743          17.750
        22.000
 99  3  9  1 56 45.0010000  0  6G 5G 6G10G17G24G30
  11824301.931 5   9200711.461 5  23745447.950    23745456.673           7.750
         9.500
  -4152661.270 7  -3235833.141 6  20881816.661    20881822.134          21.000
        22.250
   7158841.536 6   5578320.737 6  22505607.263    22505614.024          15.250
        15.500
  -6292397.545 6  -4903149.420 6  22669023.974    22669031.720          13.750
        18.000
   9418515.410 5   7339104.811 5  24111964.208    24111972.196           7.500
         8.250
   5629805.573 6   4384954.232 6  21688740.122    21688745.837          17.750
        22.000
 99  3  9  1 57  0.0010000  0  6G 5G 6G10G17G24G30
  11883466.644 5   9246813.829 5  23756706.661    23756715.438           7.750
         9.500
  -4163687.292 7  -3244424.816 6  20879718.403    20879723.892          20.750
        22.250
   7204498.758 6   5613897.802 6  22514295.302    22514302.224          15.250
        15.250
  -6314153.755 6  -4920102.251 6  22664883.974    22664891.376          14.000
        18.000
   9461528.914 4   7372621.841 5  24120147.708    24120156.829           6.750
         8.000
   5670280.496 6   4416493.134 6  21696442.388    21696448.110          17.750
        22.250
 99  3  9  1 57 15.0010000  0  6G 5G 6G10G17G24G30
  11942660.983 5   9292939.264 5  23767970.849    23767979.712           7.500
         9.500
  -4174632.354 7  -3252953.408 6  20877635.396    20877640.903          20.750
        22.250
   7250247.343 6   5649546.058 6  22523000.903    22523007.646          15.250
        15.000
  -6335862.401 6  -4937018.027 6  22660752.802    22660760.446          13.750
        18.000
   9504529.723 5   7406128.980 5  24128331.372    24128340.149           7.500
         8.750
   5710872.691 6   4448123.429 6  21704166.810    21704172.442          18.000
        22.250
 99  3  9  1 57 30.0010000  0  6G 5G 6G10G17G24G30
  12001888.289 5   9339090.381 5  23779241.497    23779250.337           7.500
         9.250
  -4185492.580 7  -3261415.900 6  20875568.872    20875574.321          20.750
        22.250
   7296092.665 6   5685269.684 6  22531725.013    22531732.017          15.000
        15.250
  -6357517.700 6  -4953892.227 6  22656631.567    22656639.474          13.500
        18.000
   9547524.592 5   7439631.487 5  24136514.380    24136523.302           8.750
        10.000
   5751583.855 6   4479846.415 6  21711913.849    21711919.571          18.000
        22.250
 99  3  9  1 57 45.0010000  0  6G 5G 6G10G17G24G30
  12061144.120 5   9385263.746 5  23790517.403    23790526.591           7.500
         9.250
  -4196270.396 7  -3269814.170 6  20873517.966    20873523.302          20.500
        22.250
   7342035.329 6   5721069.175 6  22540467.513    22540474.411          14.750
        15.000
  -6379120.739 6  -4970725.708 6  22652520.653    22652528.368          13.500
        18.000
   9590514.650 5   7473130.248 5  24144695.271    24144703.208           8.750
         9.250
   5792409.044 6   4511658.251 6  21719682.614    21719688.306          18.000
        22.500
 99  3  9  1 58  0.0010000  0  6G 5G 6G10G17G24G30
  12120428.014 5   9431458.957 5  23801798.856    23801807.630           7.500
         9.250
  -4206961.471 7  -3278144.848 6  20871483.396    20871488.892          20.500
        22.250
   7388079.610 6   5756947.840 6  22549229.489    22549236.556          15.000
        15.000
  -6400668.149 6  -4987515.842 6  22648420.317    22648427.954          13.500
        18.250
   9633504.568 5   7506628.896 5  24152874.239    24152882.548           7.500
         8.000
   5833349.188 6   4543559.669 6  21727473.427    21727479.138          18.250
        22.750
 99  3  9  1 58 15.0010000  0  6G 5G 6G10G17G24G30
  12179735.894 5   9477672.877 5  23813085.013    23813093.825           7.500
         9.250
  -4217569.376 7  -3286410.719 6  20869464.856    20869470.192          20.500
        22.000
   7434222.829 6   5792903.603 6  22558010.310    22558017.146          15.000
        15.000
  -6422160.107 6  -5004262.765 6  22644330.872    22644338.384          13.750
        18.250
   9676494.053 5   7540127.234 5  24161055.317    24161063.552           7.750
         7.750
   5874398.689 6   4575546.294 6  21735284.771    21735290.392          18.250
        22.750
 99  3  9  1 58 30.0010000  0  6G 5G 6G10G17G24G30
  12239069.108 5   9523906.521 5  23824375.216    23824384.415           7.500
         9.250
  -4228091.608 7  -3294609.835 6  20867462.583    20867468.005          20.500
        22.000
   7480465.316 6   5828936.719 6  22566810.013    22566816.806          15.000
        15.000
  -6443598.250 6  -5020967.757 6  22640251.146    22640258.657          14.000
        18.250
   9719487.124 5   7573628.367 5  24169237.403    24169245.415           8.500
         8.250
   5915557.154 6   4607617.836 6  21743116.950    21743122.712          18.500
        23.000
 99  3  9  1 58 45.0010000  0  6G 5G 6G10G17G24G30
  12298432.578 4   9570163.758 5  23835672.013    23835680.853           7.250
         9.250
  -4238524.476 7  -3302739.320 6  20865477.192    20865482.626          20.500
        22.000
   7526805.901 6   5865046.267 6  22575628.239    22575635.271          14.750
        14.750
  -6464981.109 6  -5037629.665 6  22636181.942    22636189.614          13.750
        18.250
   9762486.694 5   7607134.535 5  24177419.169    24177428.048           7.750
         9.000
   5956828.158 6   4639777.062 6  21750970.552    21750976.306          18.500
        23.000
 99  3  9  1 59  0.0010000  0  6G 5G 6G10G17G24G30
  12357822.300 4   9616441.447 5  23846973.372    23846982.161           7.250
         9.000
  -4248875.044 7  -3310804.664 6  20863507.466    20863512.923          20.250
        22.000
   7573239.040 6   5901227.948 6  22584464.263    22584470.759          14.750
        15.000
  -6486313.508 6  -5054252.257 6  22632122.271    22632130.126          13.500
        18.500
   9805488.901 5   7640642.747 5  24185602.552    24185611.454           8.000
         9.250
   5998208.463 6   4672021.461 6  21758844.966    21758850.743          18.500
        23.000
 99  3  9  1 59 15.0010000  0  6G 5G 6G10G17G24G30
  12417239.965 4   9662740.885 5  23858280.317    23858289.239           7.250
         9.250
  -4259142.782 7  -3318805.468 6  20861553.560    20861559.028          20.250
        22.000
   7619769.577 6   5937485.509 6  22593318.646    22593325.544          14.500
        14.750
  -6507595.198 6  -5070835.331 6  22628072.489    22628080.259          13.500
        18.500
   9848497.969 5   7674156.320 5  24193787.544    24193795.501           8.250
         9.000
   6039699.852 6   4704352.413 6  21766740.536    21766746.321          18.500
        23.000
 99  3  9  1 59 30.0010000  0  6G 5G 6G10G17G24G30
  12476689.311 4   9709065.039 5  23869593.606    23869602.165           7.250
         9.000
  -4269322.760 7  -3326737.891 6  20859616.419    20859621.767          20.250
        22.000
   7666400.313 6   5973821.159 6  22602192.130    22602198.759          14.500
        14.750
  -6528822.771 6  -5087376.245 6  22624033.255    22624040.864          13.750
        18.750
   9891517.640 5   7707678.167 5  24201972.950    24201981.333           8.000
         8.250
   6081302.561 6   4736770.119 6  21774657.271    21774663.091          18.500
        23.250
 99  3  9  1 59 45.0010000  0  6G 5G 6G10G17G24G30
  12536164.072 4   9755408.990 5  23880910.583    23880919.876           7.250
         9.000
  -4279420.782 7  -3334606.452 6  20857694.724    20857700.095          20.250
        22.000
   7713125.741 6   6010230.587 6  22611083.474    22611090.587          14.250
        14.750
  -6550000.232 6  -5103878.108 6  22620003.505    22620011.040          14.000
        18.750
   9934543.267 5   7741204.632 5  24210161.052    24210168.860           8.250
         8.000
   6123012.202 6   4769271.138 6  21782594.466    21782600.255          18.500
        23.250
 99  3  9  2  0  0.0010000  0  6G 5G 6G10G17G24G30
  12595666.056 4   9801774.155 5  23892233.419    23892242.864           7.000
         9.000
  -4289433.776 7  -3342408.758 6  20855789.364    20855794.747          20.250
        22.000
   7759947.004 6   6046714.692 6  22619993.255    22620000.243          14.250
        14.500
  -6571127.699 6  -5120341.018 6  22615982.981    22615990.384          13.750
        18.750
   9977574.030 5   7774735.127 5  24218349.692    24218356.446           8.250
         7.500
   6164832.104 6   4801858.083 6  21790552.372    21790558.052          18.500
        23.250
 99  3  9  2  0 15.0010000  0  6G 5G 6G10G17G24G30
  12655193.550 4   9848159.186 5  23903561.614    23903570.255           7.000
         9.000
  -4299364.110 7  -3350146.652 6  20853899.646    20853905.013          20.250
        22.000
   7806860.182 6   6083270.426 6  22628920.606    22628927.634          14.250
        14.750
  -6592207.733 6  -5136766.962 6  22611971.021    22611978.685          13.500
        18.500
  10020605.567 5   7808266.227 5  24226537.560    24226546.021           7.750
         7.750
   6206761.082 6   4834530.017 6  21798531.247    21798537.048          18.500
        23.250
 99  3  9  2  0 30.0010000  0  6G 5G 6G10G17G24G30
  12714751.384 4   9894567.868 5  23914895.028    23914903.935           7.000
         9.000
  -4309208.337 7  -3357817.445 6  20852026.349    20852031.755          20.500
        22.000
   7853867.767 6   6119899.721 6  22637866.060    22637873.063          14.500
        14.750
  -6613238.523 6  -5153154.533 6  22607968.849    22607976.622          13.500
        18.750
  10063639.212 5   7841798.949 5  24234726.481    24234735.341           7.750
         8.000
   6248804.926 6   4867291.460 6  21806531.880    21806537.720          18.500
        23.250
 99  3  9  2  0 45.0010000  0  6G 5G 6G10G17G24G30
  12774338.029 4   9940998.993 5  23926233.497    23926242.911           6.750
         9.000
  -4318968.362 7  -3365422.638 6  20850168.989    20850174.388          20.250
        22.000
   7900970.675 6   6156603.283 6  22646829.263    22646836.271          14.250
        14.750
  -6634223.151 6  -5169506.136 6  22603975.989    22603983.478          13.750
        18.750
  10106671.534 5   7875330.652 5  24242916.630    24242924.036           8.750
         8.250
   6290964.629 6   4900143.181 6  21814554.567    21814560.466          18.500
        23.250
